GW2233 Weather Reports


time (UTC)temp
F
wind
direction
speed
knots
gust
knots
rain 1hr
in
rain 24hr
in
rain mn
in
humidity
%
barometer
mb
20260508095904 49 330 2.6 6.1 0.01 0.06 0.06 95 1016.3
20260508095805 49 327 2.6 6.1 0.01 0.06 0.06 95 1016.2
20260508095705 49 325 2.6 6.1 0.01 0.06 0.06 95 1016.1
20260508095604 49 323 2.6 6.1 0.01 0.06 0.06 95 1016.2
20260508095504 49 322 2.6 7.0 0.01 0.06 0.05 94 1016.3
20260508095403 49 320 3.5 7.0 0.01 0.06 0.05 94 1016.3
20260508095306 49 318 3.5 7.0 0.01 0.06 0.05 94 1016.3
20260508095205 49 317 3.5 7.0 0.01 0.06 0.05 95 1016.2
20260508095119 49 318 3.5 7.0 0.01 0.06 0.05 95 1016.1
20260508095103 49 318 3.5 7.0 0.01 0.06 0.05 95 1016.1
20260508095003 49 319 2.6 7.0 0.01 0.06 0.05 95 1016.2
20260508094804 49 316 3.5 7.0 0.01 0.06 0.05 95 1016.2
20260508094705 49 317 3.5 7.0 0.01 0.06 0.05 95 1016.2
20260508094603 49 318 3.5 7.0 0.01 0.06 0.05 95 1016.4
20260508094505 49 318 3.5 7.0 0.01 0.06 0.05 95 1016.3
20260508094403 49 318 3.5 6.1 0.01 0.06 0.05 95 1016.3
20260508094303 49 318 3.5 6.1 0.01 0.06 0.05 95 1016.2
20260508094219 49 317 2.6 6.1 0.01 0.06 0.05 95 1016.1
20260508094204 49 317 2.6 6.1 0.01 0.06 0.05 95 1016.1
20260508094103 49 315 2.6 6.1 0.01 0.06 0.05 94 1016.1
20260508094020 49 314 2.6 6.1 0.01 0.06 0.05 94 1016.2
20260508093903 49 316 2.6 6.1 0.01 0.06 0.05 95 1016.0
20260508093703 49 316 2.6 6.1 0.01 0.06 0.05 95 1016.1
20260508093603 49 314 2.6 5.2 0.01 0.06 0.05 95 1016.2
20260508093521 49 315 2.6 5.2 0.01 0.06 0.05 95 1016.1
20260508093503 49 316 2.6 6.1 0.01 0.06 0.05 95 1016.1
20260508093403 49 317 2.6 6.1 0.01 0.06 0.05 95 1016.1
20260508093205 49 320 2.6 6.1 0.01 0.05 0.05 95 1016.1
20260508093119 49 319 2.6 6.1 0.01 0.05 0.05 94 1016.2
20260508093105 49 319 2.6 6.1 0.01 0.05 0.05 94 1016.2
20260508093003 49 316 2.6 6.1 0.01 0.05 0.05 95 1016.2
20260508092804 49 317 2.6 6.1 0.01 0.05 0.05 95 1016.2
20260508092703 49 317 2.6 6.1 0.01 0.05 0.05 95 1016.1
20260508092604 49 319 2.6 6.1 0.01 0.05 0.05 95 1016.1
20260508092503 49 321 1.7 6.1 0.01 0.05 0.05 95 1016.1
20260508092404 49 324 1.7 6.1 0.01 0.05 0.05 95 1016.0
20260508092312 49 329 1.7 6.1 0.01 0.05 0.05 95 1016.1
20260508092203 49 334 1.7 6.1 0.02 0.05 0.05 95 1016.1
20260508092104 49 341 1.7 6.1 0.02 0.05 0.05 95 1016.1
20260508092004 49 349 1.7 7.0 0.01 0.05 0.05 95 1016.1
20260508091905 49 352 1.7 7.0 0.01 0.05 0.05 95 1016.1
20260508091803 49 353 1.7 7.0 0.01 0.05 0.05 95 1016.2
20260508091705 49 353 2.6 7.0 0.01 0.05 0.05 95 1016.0
20260508091603 49 353 2.6 7.0 0.01 0.05 0.05 94 1016.1
20260508091516 49 353 2.6 7.0 0.01 0.05 0.05 94 1016.0
20260508091503 49 352 2.6 7.0 0.01 0.05 0.05 94 1016.0
20260508091404 49 352 2.6 7.0 0.02 0.05 0.05 94 1016.1
20260508091216 49 352 1.7 7.0 0.02 0.05 0.05 94 1016.2
20260508091103 49 351 1.7 7.0 0.02 0.05 0.05 94 1016.2
20260508090904 49 347 1.7 6.1 0.02 0.05 0.05 94 1016.1
20260508090703 49 350 1.7 5.2 0.02 0.05 0.05 94 1016.1
20260508090604 49 354 1.7 5.2 0.02 0.05 0.05 94 1016.0
20260508090519 49 359 1.7 5.2 0.02 0.05 0.05 94 1016.2
20260508090404 49 3 1.7 5.2 0.02 0.05 0.05 94 1016.2
20260508090203 49 356 2.6 7.8 0.02 0.05 0.05 94 1015.9
20260508090103 49 354 2.6 7.8 0.02 0.05 0.05 94 1016.0
20260508090003 49 353 2.6 7.8 0.02 0.05 0.05 94 1016.0
20260508085905 49 355 2.6 7.8 0.02 0.05 0.05 94 1016.2
20260508085804 49 354 2.6 7.8 0.02 0.05 0.05 94 1016.1
20260508085703 49 353 2.6 7.8 0.02 0.05 0.05 95 1016.0
20260508085605 49 350 2.6 7.8 0.02 0.05 0.05 94 1015.9
20260508085504 49 344 2.6 7.8 0.02 0.05 0.05 94 1016.0
20260508085404 49 343 2.6 7.8 0.02 0.05 0.05 95 1016.1
20260508085306 49 344 2.6 7.8 0.02 0.05 0.05 95 1015.9
20260508085204 49 349 1.7 7.8 0.02 0.05 0.05 95 1016.0
20260508085105 49 347 1.7 7.0 0.02 0.05 0.05 95 1016.1
20260508085004 49 348 1.7 6.1 0.02 0.05 0.05 95 1015.8
20260508084905 49 348 1.7 6.1 0.02 0.05 0.05 95 1015.9
20260508084803 49 346 2.6 6.1 0.02 0.05 0.05 95 1015.9
20260508084703 49 345 2.6 6.1 0.02 0.05 0.05 95 1015.8
20260508084603 49 344 2.6 6.1 0.02 0.05 0.05 95 1016.0
20260508084504 49 343 2.6 6.1 0.03 0.05 0.05 95 1015.9
20260508084417 48 347 2.6 6.1 0.03 0.05 0.05 95 1016.0
20260508084404 48 346 2.6 6.1 0.03 0.05 0.05 95 1016.0
20260508084320 48 345 2.6 6.1 0.02 0.04 0.04 95 1015.9
20260508084304 48 345 2.6 6.1 0.02 0.04 0.04 95 1015.9
20260508084004 48 349 2.6 6.1 0.02 0.04 0.04 95 1015.7
20260508083918 48 347 2.6 6.1 0.02 0.04 0.04 95 1015.8
20260508083904 48 348 2.6 5.2 0.02 0.04 0.04 95 1015.8
20260508083805 48 351 2.6 7.0 0.02 0.04 0.04 95 1015.9
20260508083603 48 346 2.6 7.0 0.02 0.04 0.04 95 1015.9
20260508083504 48 344 2.6 7.0 0.02 0.04 0.04 95 1015.8
20260508083404 48 341 2.6 7.0 0.02 0.04 0.04 95 1015.8
20260508083304 48 340 2.6 7.0 0.02 0.04 0.04 95 1015.8
20260508083203 48 339 2.6 7.0 0.03 0.04 0.04 95 1015.8
20260508083119 48 339 2.6 7.0 0.02 0.04 0.04 95 1015.8
20260508083103 48 339 2.6 7.0 0.02 0.04 0.04 95 1015.8
20260508083003 48 339 2.6 7.0 0.02 0.04 0.04 95 1015.8
20260508082803 48 335 2.6 7.0 0.02 0.04 0.04 95 1015.9
20260508082721 48 337 2.6 7.0 0.02 0.04 0.04 95 1015.8
20260508082703 48 339 2.6 7.0 0.02 0.04 0.04 95 1015.8
20260508082605 48 343 2.6 6.1 0.02 0.04 0.04 95 1015.7
20260508082403 48 349 2.6 6.1 0.02 0.04 0.04 95 1015.8
20260508082319 48 349 2.6 6.1 0.02 0.04 0.04 95 1015.8
20260508082306 48 349 2.6 6.1 0.02 0.04 0.04 95 1015.8
20260508082203 48 351 2.6 6.1 0.02 0.04 0.04 95 1015.5
20260508082117 48 353 2.6 6.1 0.02 0.04 0.04 95 1015.8
20260508082019 48 352 2.6 7.8 0.02 0.04 0.04 95 1015.5
20260508082004 48 351 2.6 7.8 0.02 0.04 0.04 95 1015.5
20260508081704 48 352 2.6 7.8 0.02 0.04 0.04 95 1015.8
20260508081604 48 351 2.6 7.8 0.02 0.04 0.04 95 1015.9
20260508081504 48 350 2.6 7.8 0.02 0.04 0.04 95 1015.7
20260508081419 48 351 2.6 7.8 0.02 0.03 0.03 95 1015.7
20260508081303 48 354 2.6 7.8 0.02 0.03 0.03 95 1015.9
20260508081103 48 353 2.6 7.8 0.02 0.03 0.03 95 1015.7
20260508081004 48 351 2.6 7.8 0.02 0.03 0.03 95 1015.7
20260508080920 48 352 2.6 7.8 0.02 0.03 0.03 95 1015.8
20260508080904 48 351 2.6 7.0 0.02 0.03 0.03 95 1015.8
20260508080804 48 352 2.6 7.0 0.02 0.03 0.03 95 1015.7
20260508080603 48 350 2.6 7.0 0.02 0.03 0.03 95 1015.5
20260508080505 48 349 2.6 7.0 0.02 0.03 0.03 95 1015.5
20260508080403 48 350 2.6 7.0 0.02 0.03 0.03 95 1015.5
20260508080319 48 350 2.6 7.0 0.02 0.03 0.03 95 1015.5
20260508080303 48 347 2.6 7.0 0.02 0.03 0.03 95 1015.5
20260508080203 48 347 2.6 7.0 0.02 0.03 0.03 95 1015.7
20260508080005 48 347 3.5 7.0 0.02 0.02 0.02 95 1015.4
20260508075922 48 346 3.5 7.0 0.02 0.02 0.02 95 1015.5
20260508075903 48 345 3.5 7.0 0.02 0.02 0.02 95 1015.5
20260508075805 48 346 3.5 7.0 0.02 0.02 0.02 95 1015.5
20260508075617 48 348 2.6 7.0 0.02 0.02 0.02 95 1015.5
20260508075503 48 347 2.6 7.0 0.02 0.02 0.02 95 1015.5
20260508075308 48 348 2.6 7.0 0.02 0.02 0.02 95 1015.5
20260508075205 48 347 2.6 7.0 0.02 0.02 0.02 95 1015.5
20260508075105 48 350 1.7 7.0 0.02 0.02 0.02 95 1015.5
20260508075005 48 348 1.7 7.0 0.02 0.02 0.02 95 1015.8
20260508074903 48 349 1.7 7.0 0.02 0.02 0.02 96 1015.5
20260508074804 48 350 1.7 6.1 0.02 0.02 0.02 96 1015.5
20260508074704 48 350 1.7 6.1 0.02 0.02 0.02 96 1015.7
20260508074604 48 350 1.7 6.1 0.02 0.02 0.02 96 1015.7
20260508074503 48 350 2.6 6.1 0.02 0.02 0.02 96 1015.4
20260508074404 48 350 2.6 6.1 0.02 0.02 0.02 96 1015.5
20260508074304 48 347 2.6 6.1 0.02 0.02 0.02 96 1015.5
20260508074218 48 348 2.6 6.1 0.02 0.02 0.02 96 1015.5
20260508074205 48 349 2.6 6.1 0.02 0.02 0.02 96 1015.5
20260508074103 48 351 2.6 6.1 0.02 0.02 0.02 96 1015.3
20260508073905 48 360 2.6 6.1 0.02 0.02 0.02 96 1015.4
20260508073803 48 3 2.6 6.1 0.02 0.02 0.02 96 1015.4
20260508073704 48 10 2.6 6.1 0.02 0.02 0.02 96 1015.4
20260508073605 48 15 2.6 6.1 0.02 0.02 0.02 96 1015.4
20260508073504 48 15 1.7 6.1 0.02 0.02 0.02 96 1015.3
20260508073419 48 14 1.7 6.1 0.02 0.02 0.02 96 1015.4
20260508073404 48 15 1.7 6.1 0.02 0.02 0.02 96 1015.4
20260508073304 48 21 1.7 6.1 0.02 0.02 0.02 96 1015.4
20260508073123 47 22 1.7 6.1 0.02 0.02 0.02 96 1015.3
20260508073104 47 23 1.7 6.1 0.02 0.02 0.02 96 1015.3
20260508073003 47 29 1.7 6.1 0.02 0.02 0.02 96 1015.2
20260508072803 47 31 1.7 7.8 0.02 0.02 0.02 96 1015.2
20260508072705 47 28 1.7 7.8 0.02 0.02 0.02 96 1015.4
20260508072603 47 32 1.7 7.8 0.02 0.02 0.02 96 1015.3
20260508072503 47 32 1.7 7.8 0.02 0.02 0.02 96 1015.4
20260508072405 47 32 2.6 7.8 0.02 0.02 0.02 96 1015.3
20260508072307 47 27 2.6 7.8 0.02 0.02 0.02 96 1015.2
20260508072204 47 18 2.6 7.8 0.02 0.02 0.02 96 1015.2
20260508072105 47 13 2.6 7.8 0.02 0.02 0.02 96 1015.3
20260508072019 47 6 3.5 7.8 0.02 0.02 0.02 96 1015.3
20260508072004 47 6 3.5 7.8 0.02 0.02 0.02 96 1015.3
20260508071905 47 4 3.5 7.8 0.02 0.02 0.02 96 1015.2
20260508071705 47 359 2.6 7.8 0.01 0.01 0.01 96 1015.2
20260508071503 47 347 2.6 7.0 0.01 0.01 0.01 96 1015.3
20260508071403 47 343 2.6 7.0 0.01 0.01 0.01 96 1015.3
20260508071303 47 338 2.6 7.0 0.01 0.01 0.01 96 1015.2
20260508071203 47 343 2.6 7.0 0.01 0.01 0.01 96 1015.2
20260508071122 47 346 2.6 7.0 0.01 0.01 0.01 96 1015.2
20260508071104 47 346 2.6 7.0 0.01 0.01 0.01 96 1015.2
20260508071003 47 345 1.7 5.2 0.01 0.01 0.01 96 1015.3
20260508070803 47 338 1.7 5.2 0.01 0.01 0.01 96 1015.3
20260508070705 47 335 1.7 5.2 0.01 0.01 0.01 96 1015.3
20260508070603 47 337 1.7 5.2 0.01 0.01 0.01 96 1015.3
20260508070503 47 342 1.7 5.2 0.01 0.01 0.01 96 1015.3
20260508070404 47 341 1.7 5.2 0.01 0.01 0.01 96 1015.2
20260508070303 47 344 1.7 5.2 0.01 0.01 0.01 96 1015.4
20260508070203 47 341 1.7 5.2 0.01 0.01 0.01 96 1015.2
20260508070003 47 345 1.7 5.2 0.01 0.01 0.01 96 1015.1
20260508065905 47 349 1.7 5.2 0.01 0.01 0.01 96 1015.2
20260508065803 47 350 1.7 5.2 0.00 0.00 0.01 96 1015.2
20260508065704 47 354 1.7 5.2 0.00 0.00 0.00 96 1015.1
20260508065603 47 353 1.7 5.2 0.00 0.00 0.00 96 1015.2
20260508065504 47 348 1.7 5.2 0.00 0.00 0.00 96 1015.3
20260508065403 47 349 1.7 5.2 0.00 0.00 0.00 96 1015.1
20260508065306 47 349 1.7 5.2 0.00 0.00 0.00 96 1015.1
20260508065203 47 347 1.7 5.2 0.00 0.00 0.00 96 1015.3
20260508065105 47 346 2.6 5.2 0.00 0.00 0.00 96 1015.3
20260508065005 47 342 2.6 5.2 0.00 0.00 0.00 96 1015.1
20260508064903 47 342 2.6 5.2 0.00 0.00 0.00 96 1015.2
20260508064803 47 344 2.6 5.2 0.00 0.00 0.00 96 1015.1
20260508064703 47 341 2.6 5.2 0.00 0.00 0.00 96 1015.1
20260508064605 47 340 2.6 7.0 0.00 0.00 0.00 96 1015.1
20260508064504 47 336 2.6 7.0 0.00 0.00 0.00 96 1015.3
20260508064420 47 335 2.6 7.0 0.00 0.00 0.00 96 1015.1
20260508064405 47 334 2.6 7.0 0.00 0.00 0.00 96 1015.1
20260508064304 47 332 2.6 7.0 0.00 0.00 0.00 95 1015.1
20260508064103 47 333 2.6 7.0 0.00 0.00 0.00 95 1015.1
20260508064003 47 334 2.6 7.0 0.00 0.00 0.00 95 1015.2
20260508063903 47 335 2.6 7.0 0.00 0.00 0.00 95 1015.2
20260508063804 47 336 2.6 7.8 0.00 0.00 0.00 95 1015.1
20260508063703 47 333 2.6 7.8 0.00 0.00 0.00 95 1015.1
20260508063405 47 336 2.6 7.8 0.00 0.00 0.00 95 1015.1
20260508063304 47 338 2.6 7.8 0.00 0.00 0.00 95 1015.1
20260508063203 47 337 2.6 7.8 0.00 0.00 0.00 95 1015.1
20260508063118 47 335 2.6 7.8 0.00 0.00 0.00 95 1015.1
20260508063103 47 334 2.6 7.8 0.00 0.00 0.00 95 1015.1
20260508063003 47 333 2.6 7.8 0.00 0.00 0.00 95 1015.2
20260508062804 47 327 1.7 7.8 0.00 0.00 0.00 95 1015.1
20260508062705 47 333 1.7 7.8 0.00 0.00 0.00 95 1015.1
20260508062604 47 335 1.7 5.2 0.00 0.00 0.00 95 1015.1
20260508062505 47 336 1.7 5.2 0.00 0.00 0.00 95 1015.1
20260508062404 47 334 2.6 5.2 0.00 0.00 0.00 95 1015.1
20260508062306 47 331 2.6 5.2 0.00 0.00 0.00 95 1015.1
20260508062204 47 331 2.6 5.2 0.00 0.00 0.00 95 1015.1
20260508062105 47 332 2.6 5.2 0.00 0.00 0.00 95 1015.1
20260508062005 47 333 2.6 5.2 0.00 0.00 0.00 95 1015.0
20260508061903 47 334 2.6 5.2 0.00 0.00 0.00 95 1015.1
20260508061805 47 334 2.6 5.2 0.00 0.00 0.00 95 1015.1
20260508061705 47 328 2.6 6.1 0.00 0.00 0.00 95 1015.2
20260508061603 47 326 2.6 6.1 0.00 0.00 0.00 95 1015.2
20260508061503 47 328 2.6 6.1 0.00 0.00 0.00 95 1015.0
20260508061405 47 329 2.6 6.1 0.00 0.00 0.00 95 1015.1
20260508061305 47 328 2.6 6.1 0.00 0.00 0.00 95 1015.1
20260508061205 47 330 2.6 6.1 0.00 0.00 0.00 95 1015.0
20260508061105 47 330 2.6 6.1 0.00 0.00 0.00 95 1015.0
20260508061003 47 331 2.6 6.1 0.00 0.00 0.00 95 1014.9
20260508060919 47 332 2.6 6.1 0.00 0.00 0.00 95 1014.9
20260508060903 47 332 2.6 6.1 0.00 0.00 0.00 95 1014.9
20260508060803 47 333 2.6 6.1 0.00 0.00 0.00 95 1014.9
20260508060603 47 343 2.6 6.1 0.00 0.00 0.00 95 1015.0
20260508060505 47 338 2.6 5.2 0.00 0.00 0.00 95 1014.9
20260508060404 47 344 2.6 6.1 0.00 0.00 0.00 95 1014.8
20260508060303 47 345 2.6 6.1 0.00 0.00 0.00 95 1014.8
20260508060204 47 346 2.6 6.1 0.00 0.00 0.00 95 1014.7
20260508060108 47 345 2.6 6.1 0.00 0.00 0.00 95 1014.8
20260508055903 47 343 2.6 6.1 0.00 0.00 0.00 94 1014.7
20260508055803 47 341 2.6 6.1 0.00 0.00 0.00 94 1014.7
20260508055718 47 338 2.6 6.1 0.00 0.00 0.00 94 1014.7
20260508055705 47 337 2.6 6.1 0.00 0.00 0.00 94 1014.8
20260508055604 47 332 2.6 6.1 0.00 0.00 0.00 94 1014.8
20260508055418 47 329 2.6 6.1 0.00 0.00 0.00 94 1015.0
20260508055404 47 328 2.6 6.1 0.00 0.00 0.00 94 1015.0
20260508055306 47 326 2.6 7.0 0.00 0.00 0.00 94 1014.8
20260508055105 47 329 2.6 7.0 0.00 0.00 0.00 94 1014.7
20260508055003 47 330 2.6 7.0 0.00 0.00 0.00 94 1014.7
20260508054904 47 330 2.6 7.0 0.00 0.00 0.00 94 1015.0
20260508054803 47 332 2.6 7.0 0.00 0.00 0.00 94 1014.9
20260508054705 47 330 2.6 7.0 0.00 0.00 0.00 94 1014.8
20260508054604 47 329 2.6 7.0 0.00 0.00 0.00 94 1014.8
20260508054517 47 330 2.6 7.0 0.00 0.00 0.00 93 1014.8
20260508054405 47 330 2.6 7.0 0.00 0.00 0.00 93 1015.0
20260508054204 47 327 2.6 7.0 0.00 0.00 0.00 93 1014.9
20260508054103 47 324 2.6 7.0 0.00 0.00 0.00 93 1014.9
20260508054003 47 321 2.6 7.0 0.00 0.00 0.00 93 1014.9
20260508053921 47 319 2.6 5.2 0.00 0.00 0.00 93 1014.8
20260508053903 47 320 2.6 5.2 0.00 0.00 0.00 93 1014.8
20260508053805 47 321 2.6 5.2 0.00 0.00 0.00 93 1014.7
20260508053605 47 326 2.6 6.1 0.00 0.00 0.00 93 1014.8
20260508053503 47 330 2.6 6.1 0.00 0.00 0.00 93 1014.8
20260508053403 47 334 2.6 6.1 0.00 0.00 0.00 93 1014.8
20260508053304 47 334 2.6 6.1 0.00 0.00 0.00 93 1014.9
20260508053219 47 336 2.6 6.1 0.00 0.00 0.00 93 1014.9
20260508053205 47 336 2.6 6.1 0.00 0.00 0.00 93 1014.9
20260508053105 47 338 2.6 6.1 0.00 0.00 0.00 93 1014.6
20260508052903 47 342 2.6 6.1 0.00 0.00 0.00 93 1014.8
20260508052817 47 339 2.6 6.1 0.00 0.00 0.00 93 1014.7
20260508052803 47 339 2.6 6.1 0.00 0.00 0.00 93 1014.7
20260508052704 47 342 2.6 6.1 0.00 0.00 0.00 93 1014.8
20260508052503 47 338 2.6 6.1 0.00 0.00 0.00 93 1014.6
20260508052420 47 338 2.6 6.1 0.00 0.00 0.00 93 1014.7
20260508052403 47 339 2.6 6.1 0.00 0.00 0.00 93 1014.7
20260508052306 47 342 2.6 6.1 0.00 0.00 0.00 93 1014.7
20260508052217 47 341 2.6 6.1 0.00 0.00 0.00 93 1014.6
20260508052103 47 341 2.6 7.0 0.00 0.00 0.00 93 1014.7
20260508051916 47 340 2.6 7.0 0.00 0.00 0.00 93 1014.6
20260508051903 47 339 2.6 7.0 0.00 0.00 0.00 93 1014.6
20260508051819 47 339 2.6 7.0 0.00 0.00 0.00 93 1014.7
20260508051803 47 339 2.6 7.0 0.00 0.00 0.00 93 1014.6
20260508051503 47 341 2.6 7.0 0.00 0.00 0.00 93 1014.7
20260508051405 47 341 2.6 7.0 0.00 0.00 0.00 93 1014.7
20260508051304 47 340 2.6 7.0 0.00 0.00 0.00 93 1014.8
20260508051205 47 346 2.6 7.0 0.00 0.00 0.00 93 1014.8
20260508051104 47 346 2.6 7.0 0.00 0.00 0.00 93 1014.7
20260508051016 47 350 2.6 7.0 0.00 0.00 0.00 93 1014.7
20260508051003 47 351 2.6 7.0 0.00 0.00 0.00 93 1014.7
20260508050903 47 347 2.6 6.1 0.00 0.00 0.00 93 1014.8
20260508050704 47 351 2.6 6.1 0.00 0.00 0.00 93 1014.6
20260508050503 47 349 2.6 6.1 0.00 0.00 0.00 93 1014.7
20260508050403 47 348 2.6 6.1 0.00 0.00 0.00 93 1014.7
20260508050303 47 347 2.6 6.1 0.00 0.00 0.00 93 1014.6
20260508050215 47 344 2.6 6.1 0.00 0.00 0.00 93 1014.6
20260508050203 47 343 2.6 6.1 0.00 0.00 0.00 93 1014.6
20260508050004 47 341 2.6 6.1 0.00 0.00 0.00 93 1014.7
20260508045916 47 341 2.6 6.1 0.00 0.00 0.00 93 1014.7
20260508045905 47 342 2.6 6.1 0.00 0.00 0.00 93 1014.8
20260508045803 47 339 2.6 6.1 0.00 0.00 0.00 93 1014.8
20260508045604 47 335 2.6 6.1 0.00 0.00 0.00 93 1014.7
20260508045503 47 335 2.6 6.1 0.00 0.00 0.00 93 1014.8
20260508045403 47 333 2.6 6.1 0.00 0.00 0.00 93 1014.7
20260508045320 47 334 2.6 6.1 0.00 0.00 0.00 93 1014.7
20260508045306 47 334 2.6 6.1 0.00 0.00 0.00 93 1014.7
20260508045204 47 333 2.6 6.1 0.00 0.00 0.00 93 1014.7
20260508045117 47 335 2.6 6.1 0.00 0.00 0.00 93 1014.6
20260508045003 47 339 2.6 6.1 0.00 0.00 0.00 93 1014.7
20260508044817 47 339 2.6 6.1 0.00 0.00 0.00 93 1014.7
20260508044704 47 342 2.6 6.1 0.00 0.00 0.00 93 1014.7
20260508044603 47 343 2.6 6.1 0.00 0.00 0.00 93 1014.7
20260508044504 47 341 2.6 6.1 0.00 0.00 0.00 93 1014.8
20260508044404 47 346 2.6 6.1 0.00 0.00 0.00 93 1014.8
20260508044303 47 345 2.6 6.1 0.00 0.00 0.00 93 1014.8
20260508044204 47 345 2.6 6.1 0.00 0.00 0.00 93 1014.8
20260508044119 47 343 2.6 6.1 0.00 0.00 0.00 93 1014.8
20260508044103 47 343 2.6 6.1 0.00 0.00 0.00 93 1014.8
20260508044003 47 345 2.6 6.1 0.00 0.00 0.00 93 1014.7
20260508043804 47 349 1.7 6.1 0.00 0.00 0.00 92 1014.9
20260508043705 47 350 1.7 6.1 0.00 0.00 0.00 92 1014.8
20260508043620 47 350 2.6 6.1 0.00 0.00 0.00 92 1014.8
20260508043603 47 349 2.6 6.1 0.00 0.00 0.00 92 1014.8
20260508043519 47 347 2.6 6.1 0.00 0.00 0.00 92 1014.7
20260508043504 47 347 2.6 6.1 0.00 0.00 0.00 92 1014.9
20260508043204 47 349 2.6 6.1 0.00 0.00 0.00 92 1014.8
20260508043103 47 350 2.6 6.1 0.00 0.00 0.00 92 1014.7
20260508043005 47 346 2.6 6.1 0.00 0.00 0.00 92 1014.7
20260508042919 47 344 2.6 6.1 0.00 0.00 0.00 92 1014.7
20260508042903 47 345 2.6 6.1 0.00 0.00 0.00 92 1014.7
20260508042804 47 347 2.6 6.1 0.00 0.00 0.00 92 1014.7
20260508042603 47 344 2.6 7.0 0.00 0.00 0.00 92 1014.6
20260508042503 47 342 2.6 7.0 0.00 0.00 0.00 92 1014.6
20260508042403 47 341 2.6 7.0 0.00 0.00 0.00 92 1014.6
20260508042306 47 340 2.6 7.0 0.00 0.00 0.00 92 1014.7
20260508042204 47 340 2.6 7.0 0.00 0.00 0.00 92 1014.7
20260508042103 47 338 2.6 7.0 0.00 0.00 0.00 92 1014.7
20260508042004 47 335 2.6 7.0 0.00 0.00 0.00 92 1014.6
20260508041916 47 335 2.6 7.0 0.00 0.00 0.00 92 1014.8
20260508041904 47 334 2.6 7.0 0.00 0.00 0.00 92 1014.8
20260508041804 47 332 2.6 7.0 0.00 0.00 0.00 92 1014.6
20260508041604 47 333 2.6 7.0 0.00 0.00 0.00 92 1014.7
20260508041505 47 337 2.6 7.0 0.00 0.00 0.00 92 1014.6
20260508041404 47 337 2.6 7.0 0.00 0.00 0.00 92 1014.6
20260508041304 47 333 2.6 5.2 0.00 0.00 0.00 92 1014.6
20260508041204 47 335 2.6 5.2 0.00 0.00 0.00 92 1014.7
20260508041104 47 337 2.6 5.2 0.00 0.00 0.00 92 1014.6
20260508041003 47 346 1.7 5.2 0.00 0.00 0.00 92 1014.6
20260508040904 47 351 1.7 5.2 0.00 0.00 0.00 92 1014.6
20260508040803 47 352 2.6 5.2 0.00 0.00 0.00 92 1014.7
20260508040704 47 353 2.6 5.2 0.00 0.00 0.00 92 1014.5
20260508040604 47 357 2.6 5.2 0.00 0.00 0.00 92 1014.3
20260508040521 47 356 2.6 5.2 0.00 0.00 0.00 92 1014.5
20260508040503 47 355 1.7 5.2 0.00 0.00 0.00 92 1014.6
20260508040404 47 357 1.7 6.1 0.00 0.00 0.00 92 1014.6
20260508040205 47 357 2.6 6.1 0.00 0.00 0.00 92 1014.6
20260508040103 47 358 2.6 6.1 0.00 0.00 0.00 92 1014.6
20260508040005 47 358 2.6 7.0 0.00 0.00 0.00 92 1014.3
20260508035904 47 355 2.6 7.0 0.00 0.00 0.00 92 1014.5
20260508035804 47 355 2.6 7.0 0.00 0.00 0.00 92 1014.5
20260508035717 47 355 2.6 7.0 0.00 0.00 0.00 92 1014.6
20260508035704 47 357 2.6 7.0 0.00 0.00 0.00 92 1014.3
20260508035604 47 356 2.6 7.0 0.00 0.00 0.00 92 1014.3
20260508035519 47 354 2.6 7.0 0.00 0.00 0.00 92 1014.6
20260508035403 47 356 2.6 7.0 0.00 0.00 0.00 92 1014.6
20260508035204 47 359 2.6 7.0 0.00 0.00 0.00 92 1014.7
20260508035104 47 358 2.6 7.0 0.00 0.00 0.00 92 1014.6
20260508035003 47 353 2.6 7.0 0.00 0.00 0.00 92 1014.6
20260508034904 47 354 2.6 7.8 0.00 0.00 0.00 92 1014.6
20260508034803 47 355 3.5 7.8 0.00 0.00 0.00 92 1014.5
20260508034703 47 354 3.5 7.8 0.00 0.00 0.00 92 1014.3
20260508034605 47 353 3.5 7.8 0.00 0.00 0.00 92 1014.3
20260508034504 47 353 3.5 7.8 0.00 0.00 0.00 92 1014.5
20260508034403 47 354 3.5 8.7 0.00 0.00 0.00 92 1014.5
20260508034304 47 354 3.5 8.7 0.00 0.00 0.00 92 1014.7
20260508034216 47 356 3.5 8.7 0.00 0.00 0.00 92 1014.6
20260508034205 47 357 3.5 8.7 0.00 0.00 0.00 92 1014.6
20260508034103 47 357 3.5 8.7 0.00 0.00 0.00 92 1014.6
20260508033904 47 359 3.5 8.7 0.00 0.00 0.00 92 1014.7
20260508033804 47 359 3.5 8.7 0.00 0.00 0.00 92 1014.7
20260508033703 47 360 3.5 8.7 0.00 0.00 0.00 92 1014.5
20260508033605 47 1 3.5 8.7 0.00 0.00 0.00 92 1014.6
20260508033504 47 4 3.5 8.7 0.00 0.00 0.00 91 1014.3
20260508033405 47 5 3.5 8.7 0.00 0.00 0.00 92 1014.5
20260508033304 47 360 3.5 8.7 0.00 0.00 0.00 91 1014.6
20260508033203 47 359 2.6 8.7 0.00 0.00 0.00 92 1014.6
20260508033105 47 1 2.6 7.8 0.00 0.00 0.00 92 1014.6
20260508033005 47 2 2.6 7.8 0.00 0.00 0.00 92 1014.3
20260508032904 47 356 2.6 7.8 0.00 0.00 0.00 92 1014.5
20260508032804 47 357 3.5 7.8 0.00 0.00 0.00 91 1014.3
20260508032704 47 354 2.6 7.8 0.00 0.00 0.00 91 1014.3
20260508032618 47 352 3.5 7.8 0.00 0.00 0.00 91 1014.3
20260508032603 47 352 2.6 7.8 0.00 0.00 0.00 91 1014.3
20260508032504 47 353 2.6 7.8 0.00 0.00 0.00 91 1014.5
20260508032306 47 354 2.6 7.8 0.00 0.00 0.00 91 1014.2
20260508032216 47 354 2.6 7.8 0.00 0.00 0.00 91 1014.3
20260508032204 47 353 2.6 7.8 0.00 0.00 0.00 91 1014.3
20260508032104 47 353 2.6 7.0 0.00 0.00 0.00 91 1014.5
20260508031903 47 356 2.6 7.0 0.00 0.00 0.00 91 1014.3
20260508031810 47 356 2.6 7.0 0.00 0.00 0.00 91 1014.3
20260508031703 47 356 2.6 7.0 0.00 0.00 0.00 91 1014.3
20260508031603 47 355 2.6 7.0 0.00 0.00 0.00 91 1014.3
20260508031503 47 350 3.5 7.0 0.00 0.00 0.00 91 1014.3
20260508031403 47 348 3.5 7.0 0.00 0.00 0.00 91 1014.5
20260508031305 47 348 3.5 7.0 0.00 0.00 0.00 91 1014.3
20260508031205 47 347 3.5 7.0 0.00 0.00 0.00 91 1014.3
20260508031103 47 341 3.5 7.0 0.00 0.00 0.00 91 1014.5
20260508031004 47 337 3.5 7.0 0.00 0.00 0.00 91 1014.5
20260508030904 47 335 3.5 7.0 0.00 0.00 0.00 91 1014.5
20260508030816 47 331 3.5 7.0 0.00 0.00 0.00 91 1014.5
20260508030703 47 331 3.5 7.0 0.00 0.00 0.00 91 1014.2
20260508030618 47 331 3.5 7.0 0.00 0.00 0.00 91 1014.2
20260508030516 47 335 2.6 7.0 0.00 0.00 0.00 91 1014.2
20260508030503 47 336 2.6 7.0 0.00 0.00 0.00 91 1014.3
20260508030419 47 341 2.6 7.0 0.00 0.00 0.00 91 1014.3
20260508030220 47 345 2.6 7.0 0.00 0.00 0.00 91 1014.2
20260508030103 47 347 2.6 7.0 0.00 0.00 0.00 91 1014.5
20260508025904 47 355 2.6 7.0 0.00 0.00 0.00 91 1014.3
20260508025803 47 357 2.6 7.0 0.00 0.00 0.00 91 1014.3
20260508025705 47 355 2.6 7.0 0.00 0.00 0.00 91 1014.6
20260508025603 48 352 2.6 7.0 0.00 0.00 0.00 91 1014.2
20260508025504 47 349 2.6 7.0 0.00 0.00 0.00 92 1014.3
20260508025405 48 343 2.6 7.0 0.00 0.00 0.00 92 1014.3
20260508025306 48 343 2.6 7.0 0.00 0.00 0.00 92 1014.3
20260508025204 47 340 2.6 7.0 0.00 0.00 0.00 92 1014.3
20260508025104 48 342 2.6 7.0 0.00 0.00 0.00 92 1014.3
20260508025003 48 339 2.6 7.0 0.00 0.00 0.00 92 1014.3
20260508024904 48 338 2.6 7.0 0.00 0.00 0.00 92 1014.3
20260508024803 48 336 3.5 7.0 0.00 0.00 0.00 92 1014.2
20260508024703 48 339 3.5 7.0 0.00 0.00 0.00 92 1014.3
20260508024604 48 340 3.5 7.0 0.00 0.00 0.00 91 1014.3
20260508024520 48 340 3.5 7.0 0.00 0.00 0.00 91 1014.3
20260508024503 48 342 3.5 7.0 0.00 0.00 0.00 92 1014.3
20260508024205 48 343 3.5 7.0 0.00 0.00 0.00 91 1014.2
20260508024103 48 343 3.5 7.0 0.00 0.00 0.00 91 1014.2
20260508024005 48 347 3.5 7.0 0.00 0.00 0.00 91 1014.2
20260508023903 48 346 3.5 8.7 0.00 0.00 0.00 91 1014.2
20260508023803 48 349 3.5 8.7 0.00 0.00 0.00 91 1014.1
20260508023703 48 347 3.5 8.7 0.00 0.00 0.00 91 1014.0
20260508023604 48 346 3.5 8.7 0.00 0.00 0.00 91 1014.0
20260508023505 48 344 3.5 8.7 0.00 0.00 0.00 91 1014.1
20260508023403 48 345 3.5 8.7 0.00 0.00 0.00 91 1014.1
20260508023319 48 344 3.5 8.7 0.00 0.00 0.00 91 1014.1
20260508023303 48 344 2.6 8.7 0.00 0.00 0.00 91 1014.2
20260508023203 48 342 2.6 8.7 0.00 0.00 0.00 91 1014.2
20260508023003 48 341 2.6 8.7 0.00 0.00 0.00 91 1014.1
20260508022904 48 340 2.6 8.7 0.00 0.00 0.00 91 1014.1
20260508022803 48 341 2.6 8.7 0.00 0.00 0.00 91 1014.0
20260508022704 48 343 1.7 5.2 0.00 0.00 0.00 91 1014.0
20260508022617 48 346 1.7 5.2 0.00 0.00 0.00 91 1014.1
20260508022604 48 347 1.7 5.2 0.00 0.00 0.00 91 1014.1
20260508022503 48 350 1.7 5.2 0.00 0.00 0.00 91 1014.1
20260508022307 48 352 1.7 5.2 0.00 0.00 0.00 91 1013.9
20260508022220 48 352 1.7 6.1 0.00 0.00 0.00 91 1014.0
20260508022204 48 353 1.7 6.1 0.00 0.00 0.00 91 1014.0
20260508022103 48 355 1.7 7.0 0.00 0.00 0.00 91 1014.0
20260508021903 48 357 1.7 7.0 0.00 0.00 0.00 91 1014.0
20260508021804 48 354 1.7 7.0 0.00 0.00 0.00 91 1014.0
20260508021704 48 356 2.6 7.0 0.00 0.00 0.00 91 1014.0
20260508021604 48 354 2.6 7.0 0.00 0.00 0.00 91 1014.1
20260508021503 48 352 2.6 7.0 0.00 0.00 0.00 91 1014.1
20260508021403 48 353 3.5 7.0 0.00 0.00 0.00 90 1014.1
20260508021304 48 352 3.5 7.0 0.00 0.00 0.00 91 1014.0
20260508021204 48 353 3.5 7.0 0.00 0.00 0.00 91 1014.0
20260508021103 48 353 3.5 8.7 0.00 0.00 0.00 91 1013.9
20260508021004 48 351 3.5 8.7 0.00 0.00 0.00 91 1013.9
20260508020904 48 349 2.6 8.7 0.00 0.00 0.00 91 1014.0
20260508020803 48 351 2.6 8.7 0.00 0.00 0.00 91 1014.0
20260508020705 48 349 2.6 8.7 0.00 0.00 0.00 91 1013.8
20260508020604 48 351 2.6 8.7 0.00 0.00 0.00 91 1014.1
20260508020504 48 353 2.6 8.7 0.00 0.00 0.00 91 1014.1
20260508020403 48 353 2.6 8.7 0.00 0.00 0.00 91 1014.1
20260508020304 48 353 2.6 8.7 0.00 0.00 0.00 90 1014.1
20260508020220 48 355 3.5 8.7 0.00 0.00 0.00 90 1013.8
20260508020205 48 356 3.5 8.7 0.00 0.00 0.00 90 1013.8
20260508020105 48 357 3.5 8.7 0.00 0.00 0.00 90 1013.8
20260508015904 48 360 3.5 7.8 0.00 0.00 0.00 90 1014.0
20260508015804 48 359 3.5 7.8 0.00 0.00 0.00 90 1013.9
20260508015716 48 358 2.6 7.0 0.00 0.00 0.00 90 1013.9
20260508015703 48 359 2.6 7.0 0.00 0.00 0.00 90 1013.9
20260508015619 48 358 2.6 7.0 0.00 0.00 0.00 90 1013.9
20260508015603 48 357 2.6 7.0 0.00 0.00 0.00 90 1013.9
20260508015306 48 1 2.6 7.0 0.00 0.00 0.00 90 1013.8
20260508015205 48 357 2.6 7.0 0.00 0.00 0.00 90 1014.0
20260508015103 48 356 2.6 7.0 0.00 0.00 0.00 90 1013.8
20260508015005 48 357 1.7 6.1 0.00 0.00 0.00 90 1014.1
20260508014803 48 358 1.7 5.2 0.00 0.00 0.00 90 1014.0
20260508014705 48 360 1.7 5.2 0.00 0.00 0.00 90 1014.0
20260508014604 48 2 1.7 5.2 0.00 0.00 0.00 90 1014.1
20260508014404 48 7 0.9 6.1 0.00 0.00 0.00 90 1013.9
20260508014304 48 9 0.9 6.1 0.00 0.00 0.00 90 1013.9
20260508014204 48 14 0.9 6.1 0.00 0.00 0.00 90 1014.0
20260508014103 48 16 0.9 6.1 0.00 0.00 0.00 90 1014.0
20260508014003 48 16 1.7 6.1 0.00 0.00 0.00 90 1014.2
20260508013903 48 15 1.7 6.1 0.00 0.00 0.00 90 1014.2
20260508013804 48 13 1.7 6.1 0.00 0.00 0.00 90 1014.0
20260508013704 48 13 1.7 6.1 0.00 0.00 0.00 90 1014.0
20260508013604 48 13 1.7 6.1 0.00 0.00 0.00 90 1014.0
20260508013518 48 12 1.7 6.1 0.00 0.00 0.00 90 1014.2
20260508013503 48 13 1.7 6.1 0.00 0.00 0.00 90 1014.2
20260508013416 48 14 1.7 7.0 0.00 0.00 0.00 90 1014.0
20260508013403 48 13 1.7 7.0 0.00 0.00 0.00 90 1014.0
20260508013120 48 7 2.6 7.0 0.00 0.00 0.00 90 1014.1
20260508013103 48 6 2.6 7.0 0.00 0.00 0.00 90 1014.1
20260508013003 48 6 2.6 7.0 0.00 0.00 0.00 90 1014.1
20260508012803 48 7 2.6 7.0 0.00 0.00 0.00 90 1014.0
20260508012704 48 10 2.6 7.0 0.00 0.00 0.00 90 1014.0
20260508012604 48 14 2.6 8.7 0.00 0.00 0.00 90 1014.1
20260508012504 48 15 2.6 8.7 0.00 0.00 0.00 90 1014.2
20260508012403 48 14 2.6 8.7 0.00 0.00 0.00 90 1014.1
20260508012307 48 16 2.6 8.7 0.00 0.00 0.00 90 1014.3
20260508012204 48 13 2.6 8.7 0.00 0.00 0.00 90 1014.1
20260508012103 48 15 2.6 8.7 0.00 0.00 0.00 90 1014.2
20260508012004 48 13 2.6 8.7 0.00 0.00 0.00 90 1014.0
20260508011903 48 13 2.6 8.7 0.00 0.00 0.00 90 1014.2
20260508011803 48 12 2.6 8.7 0.00 0.00 0.00 90 1014.0
20260508011703 48 8 2.6 8.7 0.00 0.00 0.00 90 1014.0
20260508011603 48 2 2.6 8.7 0.00 0.00 0.00 90 1014.1
20260508011503 48 359 2.6 8.7 0.00 0.00 0.00 90 1014.1
20260508011404 48 355 2.6 8.7 0.00 0.00 0.00 90 1014.0
20260508011303 48 352 1.7 8.7 0.00 0.00 0.00 90 1014.1
20260508011204 48 347 1.7 8.7 0.00 0.00 0.00 90 1014.1
20260508011105 48 347 1.7 6.1 0.00 0.00 0.00 90 1014.1
20260508011004 48 347 1.7 6.1 0.00 0.00 0.00 90 1014.0
20260508010904 48 344 2.6 6.1 0.00 0.00 0.00 90 1014.2
20260508010803 48 340 2.6 6.1 0.00 0.00 0.00 90 1014.1
20260508010705 48 339 2.6 6.1 0.00 0.00 0.00 90 1014.2
20260508010603 48 338 2.6 7.8 0.00 0.00 0.00 90 1014.0
20260508010503 48 337 2.6 8.7 0.00 0.00 0.00 90 1014.3
20260508010404 48 337 3.5 8.7 0.00 0.00 0.00 90 1014.3
20260508010204 48 334 3.5 8.7 0.00 0.00 0.00 89 1014.1
20260508010103 48 332 3.5 8.7 0.00 0.00 0.00 89 1014.3
20260508005905 48 328 2.6 8.7 0.00 0.00 0.00 89 1014.2
20260508005803 48 330 2.6 8.7 0.00 0.00 0.00 89 1014.2
20260508005704 48 328 2.6 8.7 0.00 0.00 0.00 89 1014.3
20260508005619 48 330 2.6 8.7 0.00 0.00 0.00 89 1014.3
20260508005604 48 331 2.6 8.7 0.00 0.00 0.00 89 1014.3
20260508005504 48 331 2.6 8.7 0.00 0.00 0.00 89 1014.5
20260508005305 49 337 2.6 7.0 0.00 0.00 0.00 89 1014.3
20260508005204 49 338 2.6 7.0 0.00 0.00 0.00 89 1014.2
20260508005003 48 338 2.6 7.0 0.00 0.00 0.00 89 1014.3
20260508004905 48 338 2.6 7.0 0.00 0.00 0.00 89 1014.3
20260508004805 48 338 2.6 7.0 0.00 0.00 0.00 89 1014.3
20260508004703 48 338 2.6 7.0 0.00 0.00 0.00 88 1014.1
20260508004619 48 340 2.6 7.0 0.00 0.00 0.00 88 1014.1
20260508004604 48 341 2.6 7.0 0.00 0.00 0.00 88 1014.1
20260508004504 48 344 2.6 7.0 0.00 0.00 0.00 88 1014.5
20260508004313 49 341 2.6 7.0 0.00 0.00 0.00 88 1014.5
20260508004204 49 342 2.6 7.0 0.00 0.00 0.00 88 1014.1
20260508004103 48 343 2.6 7.0 0.00 0.00 0.00 89 1014.1
20260508004003 48 345 2.6 7.0 0.00 0.00 0.00 88 1014.1
20260508003904 48 344 2.6 7.0 0.00 0.00 0.00 89 1014.1
20260508003803 48 343 2.6 7.0 0.00 0.00 0.00 88 1014.3
20260508003704 48 342 3.5 7.0 0.00 0.00 0.00 88 1014.3
20260508003603 48 341 3.5 7.0 0.00 0.00 0.00 88 1014.5
20260508003504 48 338 2.6 7.0 0.00 0.00 0.00 88 1014.2
20260508003404 48 338 2.6 7.0 0.00 0.00 0.00 88 1014.1
20260508003304 49 340 2.6 7.0 0.00 0.00 0.00 88 1014.2
20260508003203 49 341 2.6 7.0 0.00 0.00 0.00 88 1014.2
20260508003103 48 341 2.6 7.8 0.00 0.00 0.00 88 1014.2
20260508003004 49 340 2.6 7.8 0.00 0.00 0.00 88 1014.2
20260508002904 48 340 2.6 7.8 0.00 0.00 0.00 88 1014.2
20260508002804 49 344 2.6 7.8 0.00 0.00 0.00 88 1014.1
20260508002704 48 343 2.6 7.8 0.00 0.00 0.00 88 1014.5
20260508002505 49 342 2.6 7.8 0.00 0.00 0.00 88 1014.2
20260508002403 49 346 2.6 7.8 0.00 0.00 0.00 88 1014.2
20260508002307 48 345 3.5 7.8 0.00 0.00 0.00 88 1014.2
20260508002204 49 345 3.5 7.8 0.00 0.00 0.00 88 1014.2
20260508002103 49 343 2.6 7.8 0.00 0.00 0.00 88 1014.1
20260508002005 49 345 2.6 7.8 0.00 0.00 0.00 88 1014.1
20260508001903 48 348 2.6 7.0 0.00 0.00 0.00 88 1014.1
20260508001803 48 348 1.7 7.0 0.00 0.00 0.00 88 1014.2
20260508001705 48 352 1.7 6.1 0.00 0.00 0.00 88 1014.1
20260508001604 48 355 1.7 6.1 0.00 0.00 0.00 88 1014.3
20260508001503 48 356 1.7 6.1 0.00 0.00 0.00 88 1014.2
20260508001403 48 351 1.7 6.1 0.00 0.00 0.00 88 1014.2
20260508001303 48 349 0.9 6.1 0.00 0.00 0.00 89 1014.2
20260508001103 48 2 0.9 6.1 0.00 0.00 0.00 89 1014.1
20260508001003 48 3 0.9 3.5 0.00 0.00 0.00 89 1014.2
20260508000804 48 1 0.9 3.5 0.00 0.00 0.00 89 1014.3
20260508000705 48 2 0.9 3.5 0.00 0.00 0.00 89 1014.1
20260508000603 48 4 0.9 3.5 0.00 0.00 0.00 89 1014.1
20260508000505 48 6 0.9 3.5 0.00 0.00 0.00 89 1014.1
20260508000405 48 10 0.9 3.5 0.00 0.00 0.00 89 1014.2
20260508000305 48 20 0.9 3.5 0.00 0.00 0.00 88 1014.1
20260508000205 48 28 0.9 3.5 0.00 0.00 0.00 88 1014.1
20260508000118 48 28 0.9 3.5 0.00 0.00 0.00 88 1014.2
20260508000105 48 28 0.9 3.5 0.00 0.00 0.00 88 1014.0
20260508000020 48 33 0.9 3.5 0.00 0.00 0.00 88 1014.0
20260508000005 48 34 0.9 3.5 0.00 0.00 0.00 88 1014.0
20260507235919 48 43 0.9 6.1 0.00 0.00 0.00 89 1014.2
20260507235603 48 30 1.7 6.1 0.00 0.00 0.00 89 1014.2
20260507235503 48 25 1.7 6.1 0.00 0.00 0.00 89 1014.3
20260507235403 48 17 1.7 6.1 0.00 0.00 0.00 89 1014.1
20260507235306 48 6 1.7 6.1 0.00 0.00 0.00 89 1014.2
20260507235219 48 1 1.7 6.1 0.00 0.00 0.00 89 1013.9
20260507235104 49 359 2.6 6.1 0.00 0.00 0.00 89 1014.0
20260507235003 48 354 2.6 6.1 0.00 0.00 0.00 89 1014.0
20260507234904 48 345 2.6 6.1 0.00 0.00 0.00 89 1014.0
20260507234803 48 343 2.6 6.1 0.00 0.00 0.00 89 1014.0
20260507234705 48 342 2.6 6.1 0.00 0.00 0.00 89 1013.9
20260507234603 48 342 2.6 6.1 0.00 0.00 0.00 89 1014.2
20260507234504 48 339 2.6 6.1 0.00 0.00 0.00 89 1014.0
20260507234403 48 337 2.6 6.1 0.00 0.00 0.00 89 1014.1
20260507234303 48 337 2.6 6.1 0.00 0.00 0.00 89 1014.1
20260507234204 48 336 2.6 6.1 0.00 0.00 0.00 89 1014.2
20260507234103 49 335 2.6 6.1 0.00 0.00 0.00 89 1014.2
20260507234003 49 337 2.6 7.0 0.00 0.00 0.00 89 1014.2
20260507233903 49 340 2.6 7.0 0.00 0.00 0.00 89 1014.2
20260507233804 48 342 2.6 7.0 0.00 0.00 0.00 89 1014.1
20260507233704 49 338 2.6 7.0 0.00 0.00 0.00 88 1014.2
20260507233504 49 338 2.6 7.0 0.00 0.00 0.00 89 1014.3
20260507233403 48 341 2.6 7.0 0.00 0.00 0.00 88 1014.5
20260507233303 49 342 2.6 7.0 0.00 0.00 0.00 88 1014.2
20260507233205 49 343 2.6 7.0 0.00 0.00 0.00 88 1014.3
20260507233104 49 340 2.6 7.0 0.00 0.00 0.00 88 1014.3
20260507233003 49 339 2.6 7.0 0.00 0.00 0.00 88 1014.2
20260507232903 49 338 2.6 5.2 0.00 0.00 0.00 88 1014.2
20260507232805 48 338 2.6 5.2 0.00 0.00 0.00 88 1014.0
20260507232704 49 339 2.6 5.2 0.00 0.00 0.00 88 1014.1
20260507232503 49 340 2.6 5.2 0.00 0.00 0.00 88 1014.0
20260507232404 49 338 2.6 7.8 0.00 0.00 0.00 88 1014.2
20260507232306 48 339 2.6 7.8 0.00 0.00 0.00 88 1014.1
20260507232204 48 340 2.6 7.8 0.00 0.00 0.00 88 1014.1
20260507232103 48 341 2.6 7.8 0.00 0.00 0.00 88 1014.2
20260507232005 49 342 2.6 7.8 0.00 0.00 0.00 88 1014.2
20260507231903 49 340 2.6 7.8 0.00 0.00 0.00 88 1014.0
20260507231804 49 339 2.6 7.8 0.00 0.00 0.00 88 1014.0
20260507231703 49 338 2.6 7.8 0.00 0.00 0.00 88 1014.2
20260507231603 49 337 2.6 7.8 0.00 0.00 0.00 88 1014.2
20260507231504 49 341 2.6 7.8 0.00 0.00 0.00 88 1014.3
20260507231420 49 342 2.6 7.8 0.00 0.00 0.00 88 1014.3
20260507231403 49 341 2.6 7.8 0.00 0.00 0.00 88 1014.3
20260507231304 49 341 1.7 6.1 0.00 0.00 0.00 88 1014.1
20260507231103 49 342 1.7 6.1 0.00 0.00 0.00 88 1014.3
20260507231004 49 342 2.6 6.1 0.00 0.00 0.00 88 1014.2
20260507230904 49 340 2.6 6.1 0.00 0.00 0.00 88 1014.1
20260507230803 49 340 2.6 6.1 0.00 0.00 0.00 88 1014.3
20260507230704 49 339 2.6 6.1 0.00 0.00 0.00 88 1014.3
20260507230604 49 337 2.6 6.1 0.00 0.00 0.00 88 1014.2
20260507230519 49 335 2.6 6.1 0.00 0.00 0.00 88 1014.2
20260507230505 49 334 2.6 6.1 0.00 0.00 0.00 88 1014.2
20260507230404 49 335 3.5 6.1 0.00 0.00 0.00 88 1014.2
20260507230203 49 333 3.5 6.1 0.00 0.00 0.00 88 1014.3
20260507230004 49 334 2.6 6.1 0.00 0.00 0.00 88 1014.1
20260507225904 49 339 2.6 5.2 0.00 0.00 0.00 87 1014.1
20260507225705 49 342 2.6 7.8 0.00 0.00 0.00 87 1014.1
20260507225603 49 342 2.6 7.8 0.00 0.00 0.00 87 1014.2
20260507225405 49 345 2.6 7.8 0.00 0.00 0.00 87 1014.3
20260507225306 49 342 2.6 7.8 0.00 0.00 0.00 87 1014.5
20260507225216 49 342 2.6 7.8 0.00 0.00 0.00 88 1014.1
20260507225104 49 341 2.6 7.8 0.00 0.00 0.00 87 1014.2
20260507225004 49 341 2.6 7.8 0.00 0.00 0.00 87 1014.3
20260507224903 49 337 2.6 7.8 0.00 0.00 0.00 87 1014.6
20260507224803 49 336 2.6 7.8 0.00 0.00 0.00 87 1014.2
20260507224705 49 332 2.6 7.8 0.00 0.00 0.00 87 1014.2
20260507224604 49 329 2.6 7.8 0.00 0.00 0.00 87 1014.3
20260507224505 49 326 2.6 5.2 0.00 0.00 0.00 87 1014.2
20260507224404 49 325 1.7 5.2 0.00 0.00 0.00 87 1014.1
20260507224205 49 333 1.7 5.2 0.00 0.00 0.00 87 1014.3
20260507224103 49 332 1.7 5.2 0.00 0.00 0.00 87 1014.3
20260507224004 49 331 1.7 5.2 0.00 0.00 0.00 87 1014.3
20260507223916 49 329 1.7 5.2 0.00 0.00 0.00 87 1014.2
20260507223804 49 328 2.6 5.2 0.00 0.00 0.00 87 1014.1
20260507223704 49 328 2.6 5.2 0.00 0.00 0.00 87 1014.0
20260507223603 49 334 1.7 6.1 0.00 0.00 0.00 88 1014.1
20260507223504 49 337 1.7 6.1 0.00 0.00 0.00 88 1014.1
20260507223403 49 336 2.6 6.1 0.00 0.00 0.00 88 1014.2
20260507223303 49 332 2.6 6.1 0.00 0.00 0.00 88 1014.0
20260507223205 49 332 2.6 6.1 0.00 0.00 0.00 88 1014.0
20260507223118 49 333 2.6 6.1 0.00 0.00 0.00 87 1014.1
20260507223103 49 334 2.6 6.1 0.00 0.00 0.00 87 1014.2
20260507222803 49 342 2.6 7.0 0.00 0.00 0.00 87 1014.0
20260507222704 49 346 2.6 7.0 0.00 0.00 0.00 87 1014.0
20260507222603 49 345 2.6 7.0 0.00 0.00 0.00 87 1014.0
20260507222404 49 345 2.6 7.0 0.00 0.00 0.00 87 1013.9
20260507222306 49 346 2.6 7.0 0.00 0.00 0.00 87 1014.0
20260507222204 49 343 2.6 7.0 0.00 0.00 0.00 87 1014.0
20260507222103 49 339 2.6 7.0 0.00 0.00 0.00 87 1014.0
20260507222003 49 334 2.6 7.0 0.00 0.00 0.00 87 1014.1
20260507221905 49 328 2.6 7.0 0.00 0.00 0.00 87 1014.0
20260507221804 49 328 2.6 7.0 0.00 0.00 0.00 87 1014.0
20260507221703 49 326 2.6 7.0 0.00 0.00 0.00 87 1013.9
20260507221604 49 325 3.5 7.0 0.00 0.00 0.00 87 1013.9
20260507221520 49 322 3.5 7.0 0.00 0.00 0.00 87 1014.0
20260507221504 49 320 3.5 7.0 0.00 0.00 0.00 87 1014.0
20260507221403 49 319 3.5 7.0 0.00 0.00 0.00 87 1013.9
20260507221203 49 319 3.5 7.0 0.00 0.00 0.00 87 1014.3
20260507221104 49 321 3.5 7.0 0.00 0.00 0.00 87 1014.1
20260507221004 49 322 2.6 7.0 0.00 0.00 0.00 87 1014.2
20260507220903 49 325 2.6 7.0 0.00 0.00 0.00 87 1014.1
20260507220818 49 326 2.6 7.0 0.00 0.00 0.00 87 1014.3
20260507220704 49 328 2.6 8.7 0.00 0.00 0.00 87 1014.1
20260507220504 49 333 3.5 8.7 0.00 0.00 0.00 87 1014.1
20260507220403 49 335 2.6 8.7 0.00 0.00 0.00 86 1014.2
20260507220305 49 335 2.6 8.7 0.00 0.00 0.00 86 1014.2
20260507220203 49 336 2.6 8.7 0.00 0.00 0.00 87 1014.2
20260507220005 49 337 2.6 8.7 0.00 0.00 0.00 87 1014.1
20260507215903 49 337 2.6 8.7 0.00 0.00 0.00 87 1014.1
20260507215804 49 338 2.6 8.7 0.00 0.00 0.00 87 1014.1
20260507215705 49 339 2.6 8.7 0.00 0.00 0.00 87 1014.1
20260507215604 49 343 2.6 7.0 0.00 0.00 0.00 87 1014.1
20260507215503 49 342 2.6 7.0 0.00 0.00 0.00 87 1014.0
20260507215403 49 344 2.6 7.0 0.00 0.00 0.00 87 1014.0
20260507215306 49 346 2.6 7.0 0.00 0.00 0.00 87 1014.1
20260507215208 49 346 2.6 7.0 0.00 0.00 0.00 87 1014.1
20260507215103 49 346 2.6 7.0 0.00 0.00 0.00 87 1014.1
20260507214920 48 350 3.5 8.7 0.00 0.00 0.00 87 1014.0
20260507214903 48 351 3.5 8.7 0.00 0.00 0.00 87 1014.1
20260507214804 49 353 3.5 11.3 0.00 0.00 0.00 87 1014.1
20260507214603 49 353 3.5 11.3 0.00 0.00 0.00 88 1013.9
20260507214505 49 354 3.5 11.3 0.00 0.00 0.00 88 1013.8
20260507214403 49 355 3.5 11.3 0.00 0.00 0.00 88 1013.8
20260507214303 49 353 3.5 11.3 0.00 0.00 0.00 88 1013.9
20260507214204 49 353 3.5 11.3 0.00 0.00 0.00 88 1013.9
20260507214104 49 355 3.5 11.3 0.00 0.00 0.00 88 1013.9
20260507214003 49 352 3.5 11.3 0.00 0.00 0.00 88 1014.0
20260507213905 49 351 3.5 11.3 0.00 0.00 0.00 88 1014.0
20260507213704 49 346 3.5 11.3 0.00 0.00 0.00 88 1013.9
20260507213605 49 343 3.5 7.8 0.00 0.00 0.00 88 1014.0
20260507213516 49 345 3.5 7.8 0.00 0.00 0.00 88 1014.0
20260507213503 49 343 3.5 7.8 0.00 0.00 0.00 88 1014.0
20260507213403 49 339 3.5 8.7 0.00 0.00 0.00 88 1013.9
20260507213205 49 342 3.5 8.7 0.00 0.00 0.00 88 1014.0
20260507213118 49 340 4.3 9.6 0.00 0.00 0.00 88 1014.0
20260507213105 49 339 4.3 9.6 0.00 0.00 0.00 88 1014.0
20260507213017 49 340 4.3 9.6 0.00 0.00 0.00 88 1014.0
20260507213003 49 341 4.3 9.6 0.00 0.00 0.00 88 1014.0
20260507212705 49 341 4.3 11.3 0.00 0.00 0.00 88 1013.9
20260507212603 49 343 4.3 11.3 0.00 0.00 0.00 88 1014.0
20260507212504 49 344 4.3 11.3 0.00 0.00 0.00 88 1014.0
20260507212403 49 346 4.3 11.3 0.00 0.00 0.00 88 1013.9
20260507212307 49 343 4.3 11.3 0.00 0.00 0.00 88 1013.9
20260507212218 49 343 4.3 11.3 0.00 0.00 0.00 88 1013.8
20260507212205 49 343 4.3 11.3 0.00 0.00 0.00 88 1013.9
20260507212103 49 343 4.3 11.3 0.00 0.00 0.00 88 1013.9
20260507211905 49 341 4.3 11.3 0.00 0.00 0.00 88 1013.9
20260507211804 49 338 4.3 11.3 0.00 0.00 0.00 88 1013.8
20260507211605 49 334 4.3 8.7 0.00 0.00 0.00 87 1013.8
20260507211503 49 331 4.3 9.6 0.00 0.00 0.00 87 1013.8
20260507211405 49 333 4.3 9.6 0.00 0.00 0.00 87 1013.8
20260507211305 49 330 4.3 9.6 0.00 0.00 0.00 87 1013.9
20260507211203 49 328 4.3 9.6 0.00 0.00 0.00 87 1013.8
20260507211105 49 329 4.3 9.6 0.00 0.00 0.00 87 1014.0
20260507211003 50 326 4.3 9.6 0.00 0.00 0.00 87 1013.8
20260507210903 50 330 4.3 9.6 0.00 0.00 0.00 87 1013.9
20260507210804 50 330 4.3 9.6 0.00 0.00 0.00 87 1013.9
20260507210705 50 331 3.5 9.6 0.00 0.00 0.00 87 1013.8
20260507210620 50 330 4.3 9.6 0.00 0.00 0.00 87 1013.8
20260507210504 49 333 4.3 9.6 0.00 0.00 0.00 87 1013.6
20260507210304 50 331 3.5 7.8 0.00 0.00 0.00 87 1013.7
20260507210205 50 329 2.6 7.0 0.00 0.00 0.00 87 1013.7
20260507210105 50 328 2.6 7.8 0.00 0.00 0.00 87 1013.7
20260507210003 50 333 2.6 7.8 0.00 0.00 0.00 87 1013.8
20260507205903 50 334 2.6 7.8 0.00 0.00 0.00 87 1013.8
20260507205803 50 338 2.6 7.8 0.00 0.00 0.00 87 1013.7
20260507205703 50 340 2.6 7.8 0.00 0.00 0.00 87 1013.7
20260507205520 50 340 2.6 7.8 0.00 0.00 0.00 87 1013.7
20260507205505 50 339 2.6 7.8 0.00 0.00 0.00 87 1013.7
20260507205403 50 340 2.6 7.8 0.00 0.00 0.00 87 1013.5
20260507205220 50 347 2.6 7.8 0.00 0.00 0.00 87 1013.6
20260507205204 50 349 2.6 7.8 0.00 0.00 0.00 86 1013.5
20260507205103 50 352 2.6 7.8 0.00 0.00 0.00 86 1013.5
20260507204904 50 347 2.6 6.1 0.00 0.00 0.00 86 1013.6
20260507204805 50 346 2.6 6.1 0.00 0.00 0.00 86 1013.4
20260507204705 50 344 2.6 6.1 0.00 0.00 0.00 86 1013.6
20260507204619 50 346 2.6 6.1 0.00 0.00 0.00 86 1013.6
20260507204604 50 347 2.6 6.1 0.00 0.00 0.00 86 1013.6
20260507204503 50 348 2.6 6.1 0.00 0.00 0.00 86 1013.5
20260507204303 50 344 2.6 6.1 0.00 0.00 0.00 86 1013.5
20260507204205 50 345 2.6 6.1 0.00 0.00 0.00 86 1013.6
20260507204103 50 343 2.6 6.1 0.00 0.00 0.00 85 1013.5
20260507204003 50 346 2.6 6.1 0.00 0.00 0.00 85 1013.6
20260507203903 50 344 2.6 6.1 0.00 0.00 0.00 85 1013.5
20260507203703 50 348 2.6 7.8 0.00 0.00 0.00 85 1013.7
20260507203604 50 350 2.6 7.8 0.00 0.00 0.00 85 1013.7
20260507203520 50 349 2.6 7.8 0.00 0.00 0.00 85 1013.7
20260507203504 50 348 2.6 7.8 0.00 0.00 0.00 85 1013.6
20260507203408 50 348 2.6 7.8 0.00 0.00 0.00 85 1013.6
20260507203205 50 351 2.6 7.8 0.00 0.00 0.00 85 1013.8
20260507203103 50 350 2.6 7.8 0.00 0.00 0.00 85 1013.8
20260507203005 50 348 2.6 7.8 0.00 0.00 0.00 85 1013.8
20260507202903 50 353 2.6 7.8 0.00 0.00 0.00 85 1013.7
20260507202805 50 354 2.6 7.8 0.00 0.00 0.00 85 1013.7
20260507202703 50 354 3.5 7.8 0.00 0.00 0.00 85 1013.7
20260507202604 50 351 2.6 9.6 0.00 0.00 0.00 85 1013.7
20260507202503 50 354 3.5 9.6 0.00 0.00 0.00 86 1013.7
20260507202404 50 353 3.5 9.6 0.00 0.00 0.00 86 1013.7
20260507202306 50 353 3.5 9.6 0.00 0.00 0.00 86 1013.6
20260507202203 50 352 3.5 9.6 0.00 0.00 0.00 85 1013.6
20260507202103 50 353 3.5 9.6 0.00 0.00 0.00 85 1013.6
20260507202004 50 354 3.5 9.6 0.00 0.00 0.00 85 1013.6
20260507201903 50 351 3.5 9.6 0.00 0.00 0.00 85 1013.4
20260507201820 50 348 3.5 9.6 0.00 0.00 0.00 85 1013.4
20260507201804 50 347 3.5 9.6 0.00 0.00 0.00 85 1013.4
20260507201703 50 348 3.5 9.6 0.00 0.00 0.00 85 1013.5
20260507201504 50 349 3.5 7.8 0.00 0.00 0.00 86 1013.4
20260507201419 51 350 2.6 7.0 0.00 0.00 0.00 86 1013.4
20260507201405 51 351 2.6 7.0 0.00 0.00 0.00 86 1013.4
20260507201303 51 351 3.5 7.0 0.00 0.00 0.00 86 1013.4
20260507201104 51 357 2.6 7.0 0.00 0.00 0.00 86 1013.5
20260507201005 51 356 2.6 7.0 0.00 0.00 0.00 86 1013.5
20260507200905 51 357 2.6 7.0 0.00 0.00 0.00 86 1013.4
20260507200804 51 356 2.6 7.0 0.00 0.00 0.00 86 1013.4
20260507200704 51 354 2.6 7.0 0.00 0.00 0.00 86 1013.3
20260507200605 51 353 2.6 7.0 0.00 0.00 0.00 86 1013.3
20260507200505 51 350 2.6 6.1 0.00 0.00 0.00 86 1013.3
20260507200405 51 346 2.6 6.1 0.00 0.00 0.00 86 1013.3
20260507200305 51 341 2.6 6.1 0.00 0.00 0.00 86 1013.3
20260507200203 51 338 2.6 6.1 0.00 0.00 0.00 86 1013.2
20260507200105 51 330 2.6 6.1 0.00 0.00 0.00 86 1013.6
20260507200005 51 328 2.6 6.1 0.00 0.00 0.00 86 1013.1
20260507195903 51 322 2.6 7.8 0.00 0.00 0.00 86 1013.1
20260507195804 51 323 3.5 7.8 0.00 0.00 0.00 86 1013.1
20260507195703 51 322 3.5 7.8 0.00 0.00 0.00 86 1013.1
20260507195604 51 320 3.5 7.8 0.00 0.00 0.00 86 1013.1
20260507195520 51 320 3.5 7.8 0.00 0.00 0.00 86 1013.3
20260507195503 51 320 3.5 7.8 0.00 0.00 0.00 86 1013.4
20260507195403 51 318 3.5 7.8 0.00 0.00 0.00 86 1013.4
20260507195204 51 318 3.5 7.8 0.00 0.00 0.00 86 1013.0
20260507195118 51 320 3.5 7.8 0.00 0.00 0.00 85 1013.1
20260507195103 51 321 3.5 7.8 0.00 0.00 0.00 85 1013.2
20260507195003 51 322 3.5 7.8 0.00 0.00 0.00 85 1013.2
20260507194705 51 325 2.6 7.0 0.00 0.00 0.00 86 1013.3
20260507194604 51 326 2.6 7.0 0.00 0.00 0.00 86 1013.3
20260507194504 51 325 2.6 7.0 0.00 0.00 0.00 86 1013.4
20260507194403 51 327 2.6 7.0 0.00 0.00 0.00 86 1013.4
20260507194305 51 330 2.6 7.0 0.00 0.00 0.00 86 1013.3
20260507194204 51 332 2.6 7.0 0.00 0.00 0.00 85 1013.5
20260507194109 51 333 2.6 7.0 0.00 0.00 0.00 86 1013.3
20260507194003 51 333 2.6 7.0 0.00 0.00 0.00 85 1013.3
20260507193903 51 332 2.6 7.0 0.00 0.00 0.00 85 1013.5
20260507193820 51 333 2.6 7.0 0.00 0.00 0.00 86 1013.2
20260507193804 51 334 2.6 7.0 0.00 0.00 0.00 86 1013.2
20260507193704 51 334 2.6 7.0 0.00 0.00 0.00 86 1013.2
20260507193504 51 339 2.6 7.0 0.00 0.00 0.00 85 1013.3
20260507193405 51 340 2.6 7.0 0.00 0.00 0.00 85 1013.2
20260507193305 51 338 1.7 7.0 0.00 0.00 0.00 85 1013.2
20260507193205 51 336 1.7 7.0 0.00 0.00 0.00 85 1013.3
20260507193103 51 335 1.7 7.0 0.00 0.00 0.00 86 1013.3
20260507192905 51 337 1.7 5.2 0.00 0.00 0.00 86 1013.3
20260507192818 51 340 1.7 5.2 0.00 0.00 0.00 86 1013.2
20260507192805 51 342 1.7 5.2 0.00 0.00 0.00 86 1013.2
20260507192703 51 346 1.7 5.2 0.00 0.00 0.00 86 1013.3
20260507192503 51 349 2.6 5.2 0.00 0.00 0.00 86 1013.3
20260507192403 51 350 2.6 5.2 0.00 0.00 0.00 86 1013.3
20260507192306 51 351 2.6 5.2 0.00 0.00 0.00 86 1013.3
20260507192204 51 355 2.6 5.2 0.00 0.00 0.00 86 1013.3
20260507192103 51 356 1.7 5.2 0.00 0.00 0.00 86 1013.4
20260507192005 51 359 1.7 5.2 0.00 0.00 0.00 86 1013.4
20260507191904 51 359 2.6 5.2 0.00 0.00 0.00 86 1013.3
20260507191805 51 355 2.6 5.2 0.00 0.00 0.00 86 1013.3
20260507191704 51 351 1.7 5.2 0.00 0.00 0.00 86 1013.3
20260507191617 51 352 1.7 5.2 0.00 0.00 0.00 86 1013.2
20260507191603 51 351 1.7 5.2 0.00 0.00 0.00 86 1013.2
20260507191503 51 350 1.7 5.2 0.00 0.00 0.00 86 1013.1
20260507191205 51 348 1.7 5.2 0.00 0.00 0.00 86 1013.1
20260507191104 51 346 1.7 5.2 0.00 0.00 0.00 86 1013.5
20260507191016 51 343 1.7 5.2 0.00 0.00 0.00 86 1013.2
20260507191005 51 342 1.7 5.2 0.00 0.00 0.00 86 1013.2
20260507190904 51 339 1.7 5.2 0.00 0.00 0.00 86 1013.2
20260507190703 51 335 2.6 6.1 0.00 0.00 0.00 86 1013.2
20260507190603 51 334 2.6 6.1 0.00 0.00 0.00 86 1013.2
20260507190504 51 333 2.6 6.1 0.00 0.00 0.00 86 1013.2
20260507190420 51 329 1.7 7.0 0.00 0.00 0.00 86 1013.1
20260507190405 51 330 1.7 7.0 0.00 0.00 0.00 86 1013.1
20260507190305 51 331 2.6 7.0 0.00 0.00 0.00 86 1013.2
20260507190105 51 334 2.6 7.0 0.00 0.00 0.00 86 1013.1
20260507190018 51 334 2.6 9.6 0.00 0.00 0.00 86 1013.1
20260507190005 51 333 2.6 9.6 0.00 0.00 0.00 86 1013.1
20260507185921 51 333 2.6 9.6 0.00 0.00 0.00 86 1013.2
20260507185905 51 334 2.6 9.6 0.00 0.00 0.00 86 1013.0
20260507185603 51 335 3.5 9.6 0.00 0.00 0.00 86 1013.0
20260507185519 51 336 3.5 9.6 0.00 0.00 0.00 86 1013.0
20260507185505 51 337 3.5 9.6 0.00 0.00 0.00 86 1013.0
20260507185403 51 340 3.5 9.6 0.00 0.00 0.00 86 1013.1
20260507185205 51 343 3.5 9.6 0.00 0.00 0.00 86 1012.9
20260507185104 51 345 3.5 9.6 0.00 0.00 0.00 86 1012.9
20260507185020 51 344 4.3 9.6 0.00 0.00 0.00 86 1012.9
20260507185005 51 347 4.3 9.6 0.00 0.00 0.00 86 1013.0
20260507184905 51 347 3.5 8.7 0.00 0.00 0.00 86 1012.8
20260507184703 51 350 3.5 11.3 0.00 0.00 0.00 86 1013.2
20260507184603 51 350 3.5 11.3 0.00 0.00 0.00 86 1013.2
20260507184504 51 348 4.3 11.3 0.00 0.00 0.00 86 1012.7
20260507184405 51 347 4.3 11.3 0.00 0.00 0.00 86 1012.7
20260507184304 51 344 3.5 11.3 0.00 0.00 0.00 86 1012.9
20260507184205 51 342 3.5 11.3 0.00 0.00 0.00 86 1012.7
20260507184104 51 340 3.5 11.3 0.00 0.00 0.00 86 1012.7
20260507184003 51 338 3.5 11.3 0.00 0.00 0.00 86 1012.9
20260507183905 51 337 3.5 11.3 0.00 0.00 0.00 86 1012.9
20260507183804 51 339 3.5 11.3 0.00 0.00 0.00 86 1013.0
20260507183705 51 337 3.5 11.3 0.00 0.00 0.00 86 1012.9
20260507183604 51 335 2.6 11.3 0.00 0.00 0.00 86 1012.7
20260507183519 51 337 2.6 7.8 0.00 0.00 0.00 86 1012.7
20260507183505 51 337 2.6 7.0 0.00 0.00 0.00 86 1012.7
20260507183405 51 338 2.6 7.0 0.00 0.00 0.00 87 1012.7
20260507183105 51 342 2.6 7.0 0.00 0.00 0.00 87 1012.8
20260507183003 51 341 2.6 7.0 0.00 0.00 0.00 87 1012.7
20260507182906 51 342 2.6 7.8 0.00 0.00 0.00 87 1012.7
20260507182803 51 343 3.5 7.8 0.00 0.00 0.00 87 1012.8
20260507182705 51 344 3.5 7.8 0.00 0.00 0.00 87 1012.8
20260507182603 51 343 3.5 7.8 0.00 0.00 0.00 87 1012.7
20260507182503 51 344 3.5 8.7 0.00 0.00 0.00 87 1012.7
20260507182403 51 344 3.5 12.2 0.00 0.00 0.00 87 1012.8
20260507182319 51 345 3.5 12.2 0.00 0.00 0.00 87 1012.7
20260507182306 51 344 3.5 12.2 0.00 0.00 0.00 87 1012.6
20260507182217 51 346 3.5 12.2 0.00 0.00 0.00 87 1012.6
20260507182205 51 346 4.3 12.2 0.00 0.00 0.00 87 1012.6
20260507182119 51 348 4.3 12.2 0.00 0.00 0.00 87 1012.7
20260507181803 51 354 5.2 12.2 0.00 0.00 0.00 87 1012.6
20260507181703 51 351 5.2 12.2 0.00 0.00 0.00 87 1012.7
20260507181605 51 350 5.2 12.2 0.00 0.00 0.00 87 1012.7
20260507181504 51 349 5.2 12.2 0.00 0.00 0.00 87 1012.7
20260507181403 51 349 5.2 12.2 0.00 0.00 0.00 87 1012.7
20260507181303 51 349 5.2 12.2 0.00 0.00 0.00 87 1012.7
20260507181204 51 348 5.2 12.2 0.00 0.00 0.00 87 1012.7
20260507181104 51 344 5.2 12.2 0.00 0.00 0.00 87 1012.7
20260507181005 51 343 4.3 11.3 0.00 0.00 0.00 87 1012.6
20260507180905 51 339 4.3 11.3 0.00 0.00 0.00 87 1012.7
20260507180804 51 338 4.3 11.3 0.00 0.00 0.00 87 1012.5
20260507180720 51 340 4.3 11.3 0.00 0.00 0.00 87 1012.8
20260507180705 51 340 4.3 11.3 0.00 0.00 0.00 87 1012.7
20260507180603 51 341 3.5 11.3 0.00 0.00 0.00 87 1012.7
20260507180403 51 336 3.5 11.3 0.00 0.00 0.00 87 1012.6
20260507180305 51 336 3.5 9.6 0.00 0.00 0.00 87 1012.5
20260507180204 51 337 3.5 9.6 0.00 0.00 0.00 87 1012.5
20260507180103 51 341 3.5 9.6 0.00 0.00 0.00 87 1012.4
20260507180004 51 343 3.5 9.6 0.00 0.00 0.00 87 1012.4
20260507175904 51 343 3.5 11.3 0.00 0.00 0.00 87 1012.5
20260507175804 51 342 4.3 12.2 0.00 0.00 0.00 87 1012.5
20260507175703 51 340 4.3 12.2 0.00 0.00 0.00 87 1012.5
20260507175604 51 338 4.3 12.2 0.00 0.00 0.00 87 1012.5
20260507175405 51 337 5.2 12.2 0.00 0.00 0.00 87 1012.4
20260507175320 51 336 5.2 12.2 0.00 0.00 0.00 87 1012.4
20260507175307 51 335 5.2 12.2 0.00 0.00 0.00 87 1012.4
20260507175204 51 334 5.2 12.2 0.00 0.00 0.00 87 1012.4
20260507175003 51 328 5.2 12.2 0.00 0.00 0.00 87 1012.4
20260507174903 51 328 5.2 12.2 0.00 0.00 0.00 87 1012.3
20260507174804 52 325 5.2 12.2 0.00 0.00 0.00 87 1012.3
20260507174720 52 325 5.2 12.2 0.00 0.00 0.00 87 1012.3
20260507174705 52 325 5.2 11.3 0.00 0.00 0.00 87 1012.3
20260507174603 52 329 5.2 12.2 0.00 0.00 0.00 87 1012.4
20260507174404 52 330 5.2 12.2 0.00 0.00 0.00 87 1012.3
20260507174303 52 330 5.2 12.2 0.00 0.00 0.00 87 1012.4
20260507174103 52 331 5.2 12.2 0.00 0.00 0.00 87 1012.3
20260507174005 52 331 5.2 12.2 0.00 0.00 0.00 87 1012.2
20260507173904 52 329 5.2 12.2 0.00 0.00 0.00 87 1012.2
20260507173804 52 330 4.3 12.2 0.00 0.00 0.00 87 1012.2
20260507173605 52 329 4.3 12.2 0.00 0.00 0.00 87 1012.3
20260507173503 52 330 4.3 12.2 0.00 0.00 0.00 87 1012.3
20260507173404 52 332 4.3 8.7 0.00 0.00 0.00 88 1012.3
20260507173320 52 332 4.3 8.7 0.00 0.00 0.00 88 1012.3
20260507173205 52 335 4.3 8.7 0.00 0.00 0.00 87 1012.0
20260507173117 52 333 4.3 9.6 0.00 0.00 0.00 88 1011.9
20260507173020 52 331 4.3 9.6 0.00 0.00 0.00 88 1012.1
20260507173004 52 332 4.3 9.6 0.00 0.00 0.00 88 1012.0
20260507172703 52 330 4.3 9.6 0.00 0.00 0.00 88 1011.8
20260507172604 52 330 4.3 9.6 0.00 0.00 0.00 87 1011.8
20260507172504 52 332 4.3 9.6 0.00 0.00 0.00 87 1012.0
20260507172405 52 332 4.3 9.6 0.00 0.00 0.00 87 1012.0
20260507172307 52 334 4.3 9.6 0.00 0.00 0.00 87 1011.9
20260507172203 52 333 4.3 14.8 0.00 0.00 0.00 87 1012.0
20260507172119 52 338 4.3 14.8 0.00 0.00 0.00 87 1011.8
20260507172103 52 339 4.3 14.8 0.00 0.00 0.00 87 1011.8
20260507172005 52 344 5.2 14.8 0.00 0.00 0.00 87 1011.8
20260507171819 52 346 5.2 14.8 0.00 0.00 0.00 87 1011.9
20260507171804 52 347 5.2 14.8 0.00 0.00 0.00 87 1011.9
20260507171705 52 347 5.2 14.8 0.00 0.00 0.00 87 1011.8
20260507171620 52 347 5.2 14.8 0.00 0.00 0.00 87 1011.8
20260507171503 52 346 5.2 14.8 0.00 0.00 0.00 87 1011.8
20260507171315 52 346 6.1 14.8 0.00 0.00 0.00 87 1011.7
20260507171304 52 346 6.1 14.8 0.00 0.00 0.00 87 1011.9
20260507171205 52 344 6.1 14.8 0.00 0.00 0.00 86 1011.9
20260507171005 52 333 5.2 9.6 0.00 0.00 0.00 86 1011.8
20260507170904 52 332 5.2 9.6 0.00 0.00 0.00 86 1011.8
20260507170804 53 333 4.3 9.6 0.00 0.00 0.00 86 1011.8
20260507170704 53 331 4.3 9.6 0.00 0.00 0.00 86 1011.9
20260507170604 53 330 4.3 12.2 0.00 0.00 0.00 86 1011.9
20260507170503 53 332 4.3 12.2 0.00 0.00 0.00 86 1011.7
20260507170404 53 330 4.3 12.2 0.00 0.00 0.00 86 1011.7
20260507170303 53 327 4.3 12.2 0.00 0.00 0.00 86 1011.7
20260507170205 53 327 4.3 12.2 0.00 0.00 0.00 86 1011.7
20260507170105 53 327 4.3 12.2 0.00 0.00 0.00 86 1011.7
20260507170003 53 325 4.3 12.2 0.00 0.00 0.00 86 1011.8
20260507165903 53 326 4.3 12.2 0.00 0.00 0.00 86 1011.8
20260507165819 53 326 5.2 12.2 0.00 0.00 0.00 86 1011.7
20260507165805 53 324 5.2 12.2 0.00 0.00 0.00 86 1011.6
20260507165718 53 322 5.2 12.2 0.00 0.00 0.00 86 1011.6
20260507165705 53 322 4.3 12.2 0.00 0.00 0.00 86 1011.6
20260507165403 53 319 4.3 9.6 0.00 0.00 0.00 86 1011.8
20260507165320 53 321 4.3 9.6 0.00 0.00 0.00 86 1011.8
20260507165306 53 322 4.3 9.6 0.00 0.00 0.00 86 1011.8
20260507165204 53 324 4.3 9.6 0.00 0.00 0.00 86 1011.7
20260507165005 53 328 4.3 9.6 0.00 0.00 0.00 86 1012.0
20260507164905 53 327 4.3 9.6 0.00 0.00 0.00 86 1011.7
20260507164804 53 327 4.3 12.2 0.00 0.00 0.00 85 1011.7
20260507164719 53 327 4.3 12.2 0.00 0.00 0.00 85 1011.7
20260507164705 53 327 4.3 12.2 0.00 0.00 0.00 85 1011.6
20260507164604 53 325 5.2 12.2 0.00 0.00 0.00 85 1011.6
20260507164404 53 325 5.2 12.2 0.00 0.00 0.00 85 1011.7
20260507164303 53 322 5.2 12.2 0.00 0.00 0.00 85 1011.4
20260507164204 53 321 5.2 12.2 0.00 0.00 0.00 85 1011.6
20260507164104 53 321 5.2 12.2 0.00 0.00 0.00 85 1011.6
20260507164005 53 319 6.1 12.2 0.00 0.00 0.00 85 1011.5
20260507163916 53 319 6.1 12.2 0.00 0.00 0.00 85 1011.5
20260507163903 53 318 6.1 12.2 0.00 0.00 0.00 85 1011.5
20260507163818 53 317 6.1 12.2 0.00 0.00 0.00 84 1011.6
20260507163805 53 318 6.1 12.2 0.00 0.00 0.00 84 1011.4
20260507163503 53 320 6.1 12.2 0.00 0.00 0.00 84 1011.5
20260507163405 54 318 6.1 11.3 0.00 0.00 0.00 84 1011.5
20260507163303 54 317 6.1 11.3 0.00 0.00 0.00 84 1011.5
20260507163204 54 315 6.1 11.3 0.00 0.00 0.00 85 1011.4
20260507163124 54 316 6.1 11.3 0.00 0.00 0.00 84 1011.4
20260507163105 54 317 6.1 11.3 0.00 0.00 0.00 84 1011.4
20260507163004 54 317 6.1 11.3 0.00 0.00 0.00 84 1011.4
20260507162804 54 318 6.1 11.3 0.00 0.00 0.00 84 1011.4
20260507162703 54 317 6.1 11.3 0.00 0.00 0.00 84 1011.5
20260507162605 54 316 6.1 11.3 0.00 0.00 0.00 84 1011.5
20260507162516 54 313 6.1 11.3 0.00 0.00 0.00 84 1011.6
20260507162504 54 312 6.1 11.3 0.00 0.00 0.00 84 1011.4
20260507162404 54 313 6.1 11.3 0.00 0.00 0.00 84 1011.5
20260507162205 54 314 5.2 11.3 0.00 0.00 0.00 84 1011.4
20260507162105 54 312 5.2 11.3 0.00 0.00 0.00 84 1011.5
20260507162004 54 312 6.1 11.3 0.00 0.00 0.00 83 1011.5
20260507161903 54 309 6.1 13.0 0.00 0.00 0.00 83 1011.5
20260507161804 54 306 6.1 13.0 0.00 0.00 0.00 83 1011.5
20260507161705 54 307 6.1 13.0 0.00 0.00 0.00 83 1011.3
20260507161604 54 309 6.1 13.0 0.00 0.00 0.00 84 1011.3
20260507161503 54 309 6.1 13.0 0.00 0.00 0.00 84 1011.3
20260507161404 54 307 6.1 13.0 0.00 0.00 0.00 84 1011.3
20260507161205 54 307 6.1 13.0 0.00 0.00 0.00 83 1011.3
20260507161121 55 307 6.1 13.0 0.00 0.00 0.00 83 1011.3
20260507161105 55 306 6.1 13.0 0.00 0.00 0.00 83 1011.3
20260507161005 55 304 6.1 13.0 0.00 0.00 0.00 83 1011.3
20260507160805 55 304 6.1 13.0 0.00 0.00 0.00 83 1011.3
20260507160704 55 302 5.2 12.2 0.00 0.00 0.00 83 1011.4
20260507160603 55 303 6.1 12.2 0.00 0.00 0.00 83 1011.4
20260507160505 55 304 5.2 12.2 0.00 0.00 0.00 83 1011.4
20260507160404 55 303 5.2 12.2 0.00 0.00 0.00 83 1011.5
20260507160303 55 301 5.2 12.2 0.00 0.00 0.00 83 1011.3
20260507160204 55 300 5.2 12.2 0.00 0.00 0.00 82 1011.5
20260507160105 55 299 5.2 12.2 0.00 0.00 0.00 82 1011.5
20260507160005 55 300 5.2 11.3 0.00 0.00 0.00 83 1011.3
20260507155920 55 301 5.2 11.3 0.00 0.00 0.00 82 1011.3
20260507155903 55 301 5.2 11.3 0.00 0.00 0.00 82 1011.3
20260507155804 55 304 5.2 12.2 0.00 0.00 0.00 82 1011.2
20260507155603 55 306 5.2 12.2 0.00 0.00 0.00 83 1011.3
20260507155505 55 304 5.2 12.2 0.00 0.00 0.00 82 1011.3
20260507155420 55 305 6.1 12.2 0.00 0.00 0.00 82 1011.1
20260507155404 55 307 6.1 12.2 0.00 0.00 0.00 82 1011.3
20260507155306 55 307 6.1 12.2 0.00 0.00 0.00 82 1011.3
20260507155218 55 310 7.0 12.2 0.00 0.00 0.00 83 1011.3
20260507155104 55 311 7.0 12.2 0.00 0.00 0.00 82 1011.2
20260507154905 55 312 7.0 12.2 0.00 0.00 0.00 82 1011.2
20260507154804 55 313 7.0 12.2 0.00 0.00 0.00 82 1011.2
20260507154705 56 315 7.0 12.2 0.00 0.00 0.00 82 1011.2
20260507154604 56 316 7.0 12.2 0.00 0.00 0.00 82 1011.0
20260507154504 56 318 7.0 12.2 0.00 0.00 0.00 82 1011.0
20260507154418 56 321 6.1 12.2 0.00 0.00 0.00 82 1011.2
20260507154404 56 321 6.1 12.2 0.00 0.00 0.00 82 1011.1
20260507154118 56 324 5.2 11.3 0.00 0.00 0.00 81 1010.9
20260507154104 56 324 5.2 11.3 0.00 0.00 0.00 81 1010.9
20260507154004 56 324 5.2 11.3 0.00 0.00 0.00 81 1010.8
20260507153805 56 323 5.2 11.3 0.00 0.00 0.00 80 1011.1
20260507153704 56 320 4.3 11.3 0.00 0.00 0.00 80 1011.1
20260507153604 57 318 4.3 11.3 0.00 0.00 0.00 80 1011.0
20260507153518 57 316 4.3 11.3 0.00 0.00 0.00 80 1011.0
20260507153404 57 311 4.3 11.3 0.00 0.00 0.00 79 1011.0
20260507153205 57 305 4.3 11.3 0.00 0.00 0.00 79 1011.0
20260507153103 57 303 4.3 11.3 0.00 0.00 0.00 79 1011.0
20260507153005 57 300 3.5 7.8 0.00 0.00 0.00 80 1011.1
20260507152904 57 301 3.5 9.6 0.00 0.00 0.00 79 1010.9
20260507152820 57 300 3.5 9.6 0.00 0.00 0.00 79 1010.9
20260507152805 57 299 3.5 9.6 0.00 0.00 0.00 79 1010.9
20260507152719 57 298 3.5 9.6 0.00 0.00 0.00 79 1010.9
20260507152705 57 298 3.5 9.6 0.00 0.00 0.00 79 1010.9
20260507152403 57 297 4.3 11.3 0.00 0.00 0.00 80 1010.9
20260507152306 57 300 5.2 12.2 0.00 0.00 0.00 80 1010.9
20260507152205 57 297 5.2 12.2 0.00 0.00 0.00 79 1010.9
20260507152103 57 296 5.2 12.2 0.00 0.00 0.00 79 1010.8
20260507152005 57 296 6.1 12.2 0.00 0.00 0.00 79 1010.8
20260507151903 57 291 6.1 12.2 0.00 0.00 0.00 79 1011.0
20260507151804 57 292 6.1 12.2 0.00 0.00 0.00 79 1011.0
20260507151703 57 291 6.1 12.2 0.00 0.00 0.00 78 1010.8
20260507151605 57 293 6.1 12.2 0.00 0.00 0.00 79 1010.8
20260507151505 57 292 6.1 12.2 0.00 0.00 0.00 79 1010.9
20260507151403 57 293 6.1 12.2 0.00 0.00 0.00 79 1010.9
20260507151304 58 292 6.1 12.2 0.00 0.00 0.00 78 1011.0
20260507151105 58 295 5.2 11.3 0.00 0.00 0.00 78 1011.0
20260507151004 58 297 5.2 11.3 0.00 0.00 0.00 79 1011.0
20260507150904 58 303 5.2 11.3 0.00 0.00 0.00 78 1011.1
20260507150806 58 306 5.2 9.6 0.00 0.00 0.00 78 1011.1
20260507150703 58 314 5.2 9.6 0.00 0.00 0.00 78 1011.1
20260507150603 58 316 4.3 9.6 0.00 0.00 0.00 79 1011.1
20260507150505 58 316 4.3 9.6 0.00 0.00 0.00 79 1011.0
20260507150405 58 318 5.2 9.6 0.00 0.00 0.00 79 1011.1
20260507150303 58 320 5.2 9.6 0.00 0.00 0.00 79 1011.0
20260507150220 58 323 5.2 9.6 0.00 0.00 0.00 79 1011.0
20260507150203 58 323 5.2 9.6 0.00 0.00 0.00 78 1011.0
20260507150118 58 325 5.2 9.6 0.00 0.00 0.00 79 1010.9
20260507150104 58 326 5.2 9.6 0.00 0.00 0.00 79 1010.9
20260507145805 58 324 5.2 9.6 0.00 0.00 0.00 80 1010.8
20260507145704 58 320 5.2 9.6 0.00 0.00 0.00 79 1010.9
20260507145619 58 318 5.2 9.6 0.00 0.00 0.00 80 1010.9
20260507145604 58 319 5.2 9.6 0.00 0.00 0.00 80 1010.9
20260507145505 58 319 5.2 12.2 0.00 0.00 0.00 78 1010.9
20260507145306 58 314 5.2 12.2 0.00 0.00 0.00 77 1010.8
20260507145204 58 312 5.2 12.2 0.00 0.00 0.00 77 1010.8
20260507145104 58 310 5.2 12.2 0.00 0.00 0.00 77 1010.7
20260507145005 58 309 5.2 12.2 0.00 0.00 0.00 77 1010.7
20260507144905 58 309 5.2 12.2 0.00 0.00 0.00 78 1010.9
20260507144803 58 309 5.2 12.2 0.00 0.00 0.00 77 1010.9
20260507144704 58 307 5.2 12.2 0.00 0.00 0.00 77 1010.7
20260507144605 58 308 5.2 12.2 0.00 0.00 0.00 77 1010.7
20260507144503 58 310 5.2 12.2 0.00 0.00 0.00 76 1010.8
20260507144415 58 311 5.2 12.2 0.00 0.00 0.00 76 1010.8
20260507144304 59 312 5.2 9.6 0.00 0.00 0.00 77 1010.7
20260507144203 59 311 5.2 9.6 0.00 0.00 0.00 77 1010.7
20260507144118 59 313 5.2 9.6 0.00 0.00 0.00 77 1010.8
20260507144104 59 314 5.2 9.6 0.00 0.00 0.00 77 1010.6
20260507144004 59 316 5.2 9.6 0.00 0.00 0.00 76 1010.6
20260507143705 59 323 5.2 13.0 0.00 0.00 0.00 76 1010.7
20260507143604 59 322 5.2 13.0 0.00 0.00 0.00 76 1010.7
20260507143503 59 323 5.2 13.0 0.00 0.00 0.00 76 1010.6
20260507143416 59 323 5.2 13.0 0.00 0.00 0.00 76 1010.6
20260507143405 59 323 5.2 13.0 0.00 0.00 0.00 76 1010.8
20260507143304 59 323 5.2 13.0 0.00 0.00 0.00 77 1010.6
20260507143103 60 324 4.3 13.0 0.00 0.00 0.00 75 1010.5
20260507143003 60 320 4.3 13.0 0.00 0.00 0.00 75 1010.5
20260507142903 60 319 5.2 13.0 0.00 0.00 0.00 75 1010.5
20260507142805 60 318 5.2 13.0 0.00 0.00 0.00 74 1010.5
20260507142704 60 317 5.2 13.0 0.00 0.00 0.00 75 1010.6
20260507142603 60 317 5.2 12.2 0.00 0.00 0.00 75 1010.6
20260507142519 60 316 5.2 12.2 0.00 0.00 0.00 75 1010.4
20260507142503 60 315 5.2 12.2 0.00 0.00 0.00 75 1010.6
20260507142405 60 315 5.2 12.2 0.00 0.00 0.00 75 1010.6
20260507142204 60 316 6.1 12.2 0.00 0.00 0.00 74 1010.6
20260507142103 60 312 6.1 12.2 0.00 0.00 0.00 75 1010.5
20260507142003 61 313 6.1 12.2 0.00 0.00 0.00 73 1010.5
20260507141905 61 312 6.1 12.2 0.00 0.00 0.00 75 1010.5
20260507141805 61 313 6.1 12.2 0.00 0.00 0.00 74 1010.5
20260507141704 61 314 5.2 12.2 0.00 0.00 0.00 74 1010.3
20260507141505 61 314 5.2 11.3 0.00 0.00 0.00 73 1010.4
20260507141405 61 314 4.3 11.3 0.00 0.00 0.00 73 1010.5
20260507141304 62 311 4.3 9.6 0.00 0.00 0.00 74 1010.2
20260507141204 62 311 4.3 9.6 0.00 0.00 0.00 74 1010.2
20260507141105 62 315 4.3 9.6 0.00 0.00 0.00 74 1010.4
20260507141018 62 316 4.3 9.6 0.00 0.00 0.00 74 1010.4
20260507141003 62 316 4.3 9.6 0.00 0.00 0.00 73 1010.3
20260507140903 62 318 4.3 9.6 0.00 0.00 0.00 73 1010.3
20260507140705 62 316 5.2 9.6 0.00 0.00 0.00 74 1010.3
20260507140605 62 314 5.2 11.3 0.00 0.00 0.00 73 1010.3
20260507140503 62 314 5.2 11.3 0.00 0.00 0.00 73 1010.1
20260507140406 62 314 5.2 11.3 0.00 0.00 0.00 73 1010.2
20260507140305 62 316 5.2 11.3 0.00 0.00 0.00 73 1010.2
20260507140219 62 315 5.2 11.3 0.00 0.00 0.00 72 1010.2
20260507140205 62 316 5.2 12.2 0.00 0.00 0.00 72 1010.2
20260507140104 63 316 5.2 12.2 0.00 0.00 0.00 73 1010.3
20260507135905 63 315 5.2 12.2 0.00 0.00 0.00 72 1010.1
20260507135804 63 313 6.1 12.2 0.00 0.00 0.00 72 1010.2
20260507135704 63 315 6.1 12.2 0.00 0.00 0.00 71 1010.1
20260507135619 63 316 6.1 12.2 0.00 0.00 0.00 71 1010.1
20260507135605 64 317 6.1 12.2 0.00 0.00 0.00 71 1010.0
20260507135503 64 315 6.1 12.2 0.00 0.00 0.00 71 1010.2
20260507135416 64 315 6.1 12.2 0.00 0.00 0.00 71 1010.2
20260507135306 64 315 6.1 12.2 0.00 0.00 0.00 70 1009.9
20260507135104 65 309 6.1 12.2 0.00 0.00 0.00 70 1009.9
20260507135005 65 305 5.2 11.3 0.00 0.00 0.00 70 1009.9
20260507134905 65 301 5.2 11.3 0.00 0.00 0.00 69 1009.9
20260507134804 65 297 5.2 11.3 0.00 0.00 0.00 69 1009.9
20260507134703 65 297 5.2 11.3 0.00 0.00 0.00 69 1009.9
20260507134603 65 293 5.2 11.3 0.00 0.00 0.00 68 1009.9
20260507134505 65 291 4.3 11.3 0.00 0.00 0.00 69 1009.9
20260507134405 65 287 4.3 11.3 0.00 0.00 0.00 68 1010.0
20260507134303 65 283 4.3 9.6 0.00 0.00 0.00 68 1009.8
20260507134204 65 284 4.3 9.6 0.00 0.00 0.00 70 1009.8
20260507134103 65 284 4.3 9.6 0.00 0.00 0.00 68 1009.6
20260507134004 65 285 4.3 9.6 0.00 0.00 0.00 67 1009.6
20260507133919 65 285 4.3 8.7 0.00 0.00 0.00 67 1009.8
20260507133903 65 286 4.3 9.6 0.00 0.00 0.00 68 1009.8
20260507133804 65 287 4.3 11.3 0.00 0.00 0.00 69 1009.7
20260507133605 65 287 4.3 11.3 0.00 0.00 0.00 68 1009.6
20260507133504 65 287 4.3 11.3 0.00 0.00 0.00 69 1009.6
20260507133405 65 289 5.2 11.3 0.00 0.00 0.00 69 1009.6
20260507133303 65 287 4.3 11.3 0.00 0.00 0.00 67 1009.7
20260507133203 65 287 4.3 11.3 0.00 0.00 0.00 67 1009.5
20260507133104 65 287 4.3 11.3 0.00 0.00 0.00 66 1009.5
20260507133005 65 290 5.2 11.3 0.00 0.00 0.00 67 1009.6
20260507132903 65 293 5.2 11.3 0.00 0.00 0.00 66 1009.6
20260507132805 65 295 5.2 11.3 0.00 0.00 0.00 66 1009.6
20260507132705 65 293 5.2 9.6 0.00 0.00 0.00 66 1009.5
20260507132603 65 293 4.3 9.6 0.00 0.00 0.00 67 1009.5
20260507132505 65 293 4.3 9.6 0.00 0.00 0.00 67 1009.6
20260507132418 65 293 4.3 9.6 0.00 0.00 0.00 67 1009.6
20260507132307 65 294 5.2 9.6 0.00 0.00 0.00 66 1009.5
20260507132105 65 298 5.2 9.6 0.00 0.00 0.00 64 1009.5
20260507132003 65 295 4.3 9.6 0.00 0.00 0.00 65 1009.5
20260507131903 65 293 4.3 9.6 0.00 0.00 0.00 65 1009.6
20260507131804 65 288 4.3 9.6 0.00 0.00 0.00 64 1009.5
20260507131704 66 288 4.3 9.6 0.00 0.00 0.00 65 1009.4
20260507131605 66 290 4.3 11.3 0.00 0.00 0.00 65 1009.4
20260507131504 66 291 4.3 11.3 0.00 0.00 0.00 66 1009.4
20260507131405 66 289 5.2 11.3 0.00 0.00 0.00 65 1009.2
20260507131319 66 289 5.2 11.3 0.00 0.00 0.00 64 1009.2
20260507131303 66 289 4.3 13.9 0.00 0.00 0.00 64 1009.5
20260507131203 66 287 4.3 13.9 0.00 0.00 0.00 65 1009.3
20260507131004 66 285 5.2 13.9 0.00 0.00 0.00 66 1009.4
20260507130905 67 286 5.2 13.9 0.00 0.00 0.00 66 1009.4
20260507130803 66 287 5.2 13.9 0.00 0.00 0.00 67 1009.4
20260507130705 67 289 5.2 13.9 0.00 0.00 0.00 65 1009.3
20260507130603 67 289 5.2 13.9 0.00 0.00 0.00 65 1009.3
20260507130503 67 292 5.2 13.9 0.00 0.00 0.00 67 1009.3
20260507130405 66 296 5.2 13.9 0.00 0.00 0.00 68 1009.3
20260507130303 66 298 6.1 13.9 0.00 0.00 0.00 66 1009.3
20260507130219 66 301 6.1 13.9 0.00 0.00 0.00 66 1009.3
20260507130205 66 301 6.1 13.9 0.00 0.00 0.00 66 1009.3
20260507130105 66 303 6.1 13.9 0.00 0.00 0.00 67 1009.2
20260507125903 66 304 6.1 13.9 0.00 0.00 0.00 67 1009.3
20260507125803 66 306 7.0 13.0 0.00 0.00 0.00 66 1009.4
20260507125704 66 303 7.0 13.0 0.00 0.00 0.00 67 1009.2
20260507125605 66 303 7.0 13.0 0.00 0.00 0.00 65 1009.2
20260507125505 66 303 7.0 13.0 0.00 0.00 0.00 67 1009.3
20260507125404 66 301 7.0 13.0 0.00 0.00 0.00 65 1009.3
20260507125306 67 299 7.0 13.0 0.00 0.00 0.00 67 1009.4
20260507125204 67 297 6.1 13.0 0.00 0.00 0.00 68 1009.3
20260507125105 67 294 6.1 14.8 0.00 0.00 0.00 68 1009.2
20260507125003 67 289 7.0 14.8 0.00 0.00 0.00 65 1009.2
20260507124905 67 289 7.0 14.8 0.00 0.00 0.00 65 1009.3
20260507124819 67 290 6.1 14.8 0.00 0.00 0.00 65 1009.3
20260507124805 67 289 6.1 14.8 0.00 0.00 0.00 65 1009.3
20260507124703 67 288 6.1 14.8 0.00 0.00 0.00 65 1009.3
20260507124505 67 290 6.1 14.8 0.00 0.00 0.00 66 1009.2
20260507124403 67 289 6.1 14.8 0.00 0.00 0.00 66 1009.3
20260507124304 67 289 6.1 14.8 0.00 0.00 0.00 66 1009.4
20260507124203 67 287 6.1 14.8 0.00 0.00 0.00 67 1009.4
20260507124103 67 285 6.1 14.8 0.00 0.00 0.00 65 1009.4
20260507124003 67 285 6.1 14.8 0.00 0.00 0.00 65 1009.6
20260507123903 67 283 6.1 13.0 0.00 0.00 0.00 66 1009.6
20260507123803 67 277 6.1 13.0 0.00 0.00 0.00 64 1009.4
20260507123704 67 280 6.1 13.9 0.00 0.00 0.00 65 1009.4
20260507123604 68 275 6.1 13.9 0.00 0.00 0.00 64 1009.4
20260507123503 68 272 6.1 13.9 0.00 0.00 0.00 65 1009.3
20260507123403 68 272 6.1 13.9 0.00 0.00 0.00 65 1009.3
20260507123303 68 271 6.1 13.9 0.00 0.00 0.00 65 1009.5
20260507123203 68 270 6.1 13.9 0.00 0.00 0.00 65 1009.2
20260507123104 68 270 6.1 13.9 0.00 0.00 0.00 65 1009.3
20260507123004 68 270 5.2 13.9 0.00 0.00 0.00 64 1009.4
20260507122904 68 269 5.2 13.9 0.00 0.00 0.00 65 1009.3
20260507122803 68 270 5.2 13.9 0.00 0.00 0.00 65 1009.3
20260507122705 68 273 5.2 13.9 0.00 0.00 0.00 65 1009.4
20260507122603 68 276 5.2 13.9 0.00 0.00 0.00 63 1009.4
20260507122503 68 281 5.2 12.2 0.00 0.00 0.00 65 1009.2
20260507122405 68 283 5.2 12.2 0.00 0.00 0.00 65 1009.2
20260507122316 68 287 5.2 12.2 0.00 0.00 0.00 65 1009.2
20260507122306 68 287 5.2 12.2 0.00 0.00 0.00 65 1009.3
20260507122203 68 292 5.2 12.2 0.00 0.00 0.00 65 1009.1
20260507122004 68 297 5.2 12.2 0.00 0.00 0.00 65 1009.1
20260507121918 68 300 5.2 12.2 0.00 0.00 0.00 65 1009.1
20260507121903 68 300 5.2 12.2 0.00 0.00 0.00 65 1009.1
20260507121803 68 303 5.2 12.2 0.00 0.00 0.00 64 1009.1
20260507121604 68 292 4.3 12.2 0.00 0.00 0.00 65 1009.2
20260507121505 68 285 4.3 12.2 0.00 0.00 0.00 65 1009.0
20260507121405 68 278 4.3 9.6 0.00 0.00 0.00 63 1009.0
20260507121303 69 275 3.5 9.6 0.00 0.00 0.00 63 1009.2
20260507121205 69 272 3.5 9.6 0.00 0.00 0.00 65 1009.2
20260507121104 69 268 3.5 9.6 0.00 0.00 0.00 66 1009.1
20260507121003 68 270 3.5 9.6 0.00 0.00 0.00 64 1009.1
20260507120916 68 275 3.5 9.6 0.00 0.00 0.00 66 1009.1
20260507120905 68 275 3.5 9.6 0.00 0.00 0.00 66 1009.2
20260507120804 68 275 3.5 9.6 0.00 0.00 0.00 64 1009.2
20260507120604 68 287 3.5 9.6 0.00 0.00 0.00 65 1009.1
20260507120503 68 289 3.5 13.9 0.00 0.00 0.00 65 1009.1
20260507120417 68 287 3.5 13.9 0.00 0.00 0.00 65 1008.9
20260507120405 68 287 3.5 13.9 0.00 0.00 0.00 65 1009.0
20260507120304 68 286 4.3 13.9 0.00 0.00 0.00 65 1009.0
20260507120103 68 281 5.2 13.9 0.00 0.00 0.00 64 1009.1
20260507120020 68 280 5.2 13.9 0.00 0.00 0.00 64 1009.1
20260507120005 68 279 5.2 13.9 0.00 0.00 0.00 64 1009.0
20260507115918 68 275 5.2 13.9 0.00 0.00 0.00 65 1009.0
20260507115903 68 274 5.2 13.9 0.00 0.00 0.00 65 1009.0
20260507115605 68 268 5.2 13.9 0.00 0.00 0.00 66 1009.1
20260507115503 68 271 5.2 13.9 0.00 0.00 0.00 65 1009.0
20260507115404 68 275 6.1 13.9 0.00 0.00 0.00 64 1009.0
20260507115307 69 274 5.2 13.9 0.00 0.00 0.00 64 1009.1
20260507115203 69 277 5.2 13.9 0.00 0.00 0.00 65 1009.0
20260507115103 69 277 5.2 13.9 0.00 0.00 0.00 66 1008.8
20260507115005 68 277 5.2 13.9 0.00 0.00 0.00 69 1008.9
20260507114904 68 278 5.2 12.2 0.00 0.00 0.00 69 1009.0
20260507114819 68 281 5.2 12.2 0.00 0.00 0.00 69 1009.0
20260507114805 68 282 5.2 12.2 0.00 0.00 0.00 66 1009.0
20260507114704 68 289 5.2 13.9 0.00 0.00 0.00 66 1008.8
20260507114519 68 291 6.1 13.9 0.00 0.00 0.00 65 1008.8
20260507114503 68 290 6.1 13.9 0.00 0.00 0.00 65 1008.8
20260507114417 67 290 6.1 13.9 0.00 0.00 0.00 68 1008.8
20260507114403 67 292 6.1 13.9 0.00 0.00 0.00 68 1008.6
20260507114105 67 298 7.0 13.9 0.00 0.00 0.00 66 1008.7
20260507114003 67 304 6.1 13.9 0.00 0.00 0.00 67 1008.8
20260507113903 67 306 7.0 13.9 0.00 0.00 0.00 66 1008.8
20260507113817 67 305 7.0 13.9 0.00 0.00 0.00 66 1008.6
20260507113804 67 305 7.0 13.9 0.00 0.00 0.00 66 1008.7
20260507113703 67 304 7.0 13.9 0.00 0.00 0.00 66 1008.7
20260507113504 68 304 6.1 13.0 0.00 0.00 0.00 67 1008.5
20260507113405 68 303 5.2 13.0 0.00 0.00 0.00 66 1008.8
20260507113303 68 305 5.2 12.2 0.00 0.00 0.00 66 1008.6
20260507113221 68 302 5.2 12.2 0.00 0.00 0.00 66 1008.6
20260507113205 68 302 5.2 12.2 0.00 0.00 0.00 68 1008.4
20260507113103 68 301 5.2 11.3 0.00 0.00 0.00 66 1008.7
20260507112903 68 295 5.2 11.3 0.00 0.00 0.00 67 1008.5
20260507112805 68 294 4.3 11.3 0.00 0.00 0.00 66 1008.5
20260507112704 68 292 4.3 8.7 0.00 0.00 0.00 66 1008.6
20260507112603 68 291 4.3 8.7 0.00 0.00 0.00 68 1008.5
20260507112504 68 294 4.3 8.7 0.00 0.00 0.00 67 1008.5
20260507112403 68 292 4.3 8.7 0.00 0.00 0.00 67 1008.6
20260507112306 68 297 4.3 11.3 0.00 0.00 0.00 66 1008.5
20260507112205 68 300 4.3 11.3 0.00 0.00 0.00 66 1008.6
20260507112103 68 304 4.3 11.3 0.00 0.00 0.00 66 1008.3
20260507112004 68 307 5.2 11.3 0.00 0.00 0.00 67 1008.5
20260507111905 68 310 5.2 11.3 0.00 0.00 0.00 68 1008.4
20260507111803 68 314 5.2 11.3 0.00 0.00 0.00 66 1008.5
20260507111704 68 315 5.2 11.3 0.00 0.00 0.00 68 1008.5
20260507111603 67 312 5.2 11.3 0.00 0.00 0.00 69 1008.5
20260507111506 67 309 5.2 11.3 0.00 0.00 0.00 68 1008.6
20260507111419 67 309 5.2 11.3 0.00 0.00 0.00 68 1008.6
20260507111403 67 309 5.2 11.3 0.00 0.00 0.00 68 1008.6
20260507111303 67 302 5.2 11.3 0.00 0.00 0.00 68 1008.6
20260507111104 67 295 4.3 11.3 0.00 0.00 0.00 67 1008.6
20260507111005 68 291 4.3 11.3 0.00 0.00 0.00 67 1008.6
20260507110805 67 287 4.3 13.0 0.00 0.00 0.00 66 1008.6
20260507110717 67 285 4.3 13.0 0.00 0.00 0.00 67 1008.6
20260507110703 67 285 4.3 13.0 0.00 0.00 0.00 67 1008.5
20260507110605 67 285 4.3 13.0 0.00 0.00 0.00 67 1008.5
20260507110405 67 285 5.2 13.0 0.00 0.00 0.00 67 1008.6
20260507110304 67 288 5.2 13.0 0.00 0.00 0.00 69 1008.6
20260507110119 67 291 5.2 13.0 0.00 0.00 0.00 69 1008.6
20260507110104 67 291 5.2 13.0 0.00 0.00 0.00 67 1008.5
20260507110003 67 290 5.2 13.0 0.00 0.00 0.00 68 1008.5
20260507105804 67 287 5.2 13.0 0.00 0.00 0.00 67 1008.6
20260507105704 67 290 5.2 13.0 0.00 0.00 0.00 67 1008.7
20260507105603 67 291 5.2 12.2 0.00 0.00 0.00 66 1008.5
20260507105503 67 291 5.2 12.2 0.00 0.00 0.00 66 1008.4
20260507105403 67 292 5.2 12.2 0.00 0.00 0.00 65 1008.5
20260507105306 68 287 4.3 12.2 0.00 0.00 0.00 64 1008.6
20260507105205 68 282 4.3 12.2 0.00 0.00 0.00 66 1008.7
20260507105103 68 275 4.3 12.2 0.00 0.00 0.00 66 1008.6
20260507105003 69 275 4.3 12.2 0.00 0.00 0.00 65 1008.6
20260507104904 69 277 4.3 12.2 0.00 0.00 0.00 65 1008.5
20260507104805 69 277 4.3 12.2 0.00 0.00 0.00 63 1008.7
20260507104705 69 273 4.3 12.2 0.00 0.00 0.00 64 1008.7
20260507104603 69 271 4.3 12.2 0.00 0.00 0.00 64 1008.5
20260507104504 69 267 4.3 12.2 0.00 0.00 0.00 64 1008.4
20260507104405 69 265 4.3 12.2 0.00 0.00 0.00 66 1008.4
20260507104319 69 262 4.3 12.2 0.00 0.00 0.00 66 1008.4
20260507104304 69 262 4.3 12.2 0.00 0.00 0.00 64 1008.4
20260507104204 69 261 4.3 12.2 0.00 0.00 0.00 64 1008.4
20260507104004 69 263 5.2 13.9 0.00 0.00 0.00 65 1008.5
20260507103904 69 258 6.1 13.9 0.00 0.00 0.00 68 1008.5
20260507103820 69 252 6.1 13.9 0.00 0.00 0.00 65 1008.3
20260507103804 69 250 6.1 13.9 0.00 0.00 0.00 65 1008.5
20260507103703 69 246 6.1 13.9 0.00 0.00 0.00 65 1008.5
20260507103503 69 246 6.1 13.9 0.00 0.00 0.00 64 1008.3
20260507103403 69 249 6.1 13.9 0.00 0.00 0.00 68 1008.3
20260507103305 69 250 6.1 13.9 0.00 0.00 0.00 63 1008.4
20260507103205 69 250 6.1 13.9 0.00 0.00 0.00 64 1008.5
20260507103119 69 250 6.1 13.9 0.00 0.00 0.00 64 1008.5
20260507103105 69 250 6.1 13.9 0.00 0.00 0.00 64 1008.5
20260507103003 69 247 6.1 13.0 0.00 0.00 0.00 65 1008.3
20260507102705 69 253 5.2 12.2 0.00 0.00 0.00 63 1008.3
20260507102605 69 247 5.2 13.0 0.00 0.00 0.00 65 1008.4
20260507102505 69 248 5.2 13.9 0.00 0.00 0.00 65 1008.4
20260507102404 69 247 6.1 13.9 0.00 0.00 0.00 64 1008.3
20260507102306 69 248 6.1 13.9 0.00 0.00 0.00 63 1008.3
20260507102205 69 248 6.1 13.9 0.00 0.00 0.00 65 1008.2
20260507102103 69 250 6.1 13.9 0.00 0.00 0.00 64 1008.3
20260507102004 69 253 7.0 13.9 0.00 0.00 0.00 65 1008.3
20260507101903 69 253 7.0 13.9 0.00 0.00 0.00 65 1008.3
20260507101803 69 252 7.0 13.9 0.00 0.00 0.00 67 1008.0
20260507101703 69 253 7.0 13.9 0.00 0.00 0.00 64 1008.1
20260507101604 69 254 7.0 13.9 0.00 0.00 0.00 64 1008.0
20260507101404 69 257 6.1 13.9 0.00 0.00 0.00 64 1008.1
20260507101304 69 256 5.2 13.9 0.00 0.00 0.00 65 1008.0
20260507101205 69 255 5.2 13.9 0.00 0.00 0.00 63 1008.0
20260507101103 69 258 5.2 13.9 0.00 0.00 0.00 65 1008.1
20260507101003 69 258 4.3 13.9 0.00 0.00 0.00 64 1008.0
20260507100905 69 259 4.3 11.3 0.00 0.00 0.00 64 1008.0
20260507100818 69 264 4.3 11.3 0.00 0.00 0.00 66 1007.9
20260507100803 69 266 4.3 11.3 0.00 0.00 0.00 66 1007.9
20260507100518 69 266 4.3 11.3 0.00 0.00 0.00 67 1007.8
20260507100503 69 265 4.3 11.3 0.00 0.00 0.00 67 1007.8
20260507100405 69 265 4.3 11.3 0.00 0.00 0.00 65 1008.0
20260507100203 69 268 4.3 11.3 0.00 0.00 0.00 65 1007.7
20260507100103 69 265 4.3 9.6 0.00 0.00 0.00 68 1007.9